Wetterdaten: Mittwoch, 23.09.2009
Datum Zeit Temp. Innen Temp. Aussen UV X Diff Temp. Feuchte Inne Feuchte Auss Sonnenschein Luftdruck Regen ab 0,1 Wind Sonnenschein Windben
23.09.2009 00:00 21,4 C 14,0 C 0,0 UV-I 0,0 C 52 % 75 % 0 % 1026,1 hPa 0,0 l/m 0,0 km/h (0 Bft) 0 min 0,0 km/h (0 Bft)
23.09.2009 00:02 21,4 C 13,9 C 0,0 UV-I 0,0 C 52 % 75 % 0 % 1026,1 hPa 0,0 l/m 0,0 km/h (0 Bft) 0 min 0,0 km/h (0 Bft)
23.09.2009 00:04 21,4 C 13,9 C 0,0 UV-I 0,0 C 52 % 75 % 0 % 1026,1 hPa 0,0 l/m 0,0 km/h (0 Bft) 0 min 0,0 km/h (0 Bft)
23.09.2009 00:06 21,4 C 13,8 C 0,0 UV-I 0,0 C 52 % 76 % 0 % 1026,1 hPa 0,0 l/m 0,0 km/h (0 Bft) 0 min 0,0 km/h (0 Bft)
23.09.2009 00:08 21,4 C 13,9 C 0,0 UV-I 0,0 C 52 % 76 % 0 % 1026,1 hPa 0,0 l/m 0,0 km/h (0 Bft) 0 min 0,0 km/h (0 Bft)
23.09.2009 00:10 21,4 C 13,9 C 0,0 UV-I 0,0 C 52 % 76 % 0 % 1026,1 hPa 0,0 l/m 0,0 km/h (0 Bft) 0 min 0,0 km/h (0 Bft)
23.09.2009 00:12 21,4 C 13,7 C 0,0 UV-I 0,0 C 52 % 76 % 0 % 1026,1 hPa 0,0 l/m 0,0 km/h (0 Bft) 0 min 0,0 km/h (0 Bft)
23.09.2009 00:14 21,2 C 13,7 C 0,0 UV-I 0,0 C 52 % 76 % 0 % 1026,1 hPa 0,0 l/m 0,0 km/h (0 Bft) 0 min 0,0 km/h (0 Bft)
23.09.2009 00:16 21,2 C 13,7 C 0,0 UV-I 0,0 C 52 % 76 % 0 % 1025,9 hPa 0,0 l/m 0,0 km/h (0 Bft) 0 min 0,0 km/h (0 Bft)
23.09.2009 00:18 21,2 C 13,6 C 0,0 UV-I 0,0 C 52 % 77 % 0 % 1025,9 hPa 0,0 l/m 0,0 km/h (0 Bft) 0 min 0,0 km/h (0 Bft)
23.09.2009 00:20 21,2 C 13,7 C 0,0 UV-I 0,0 C 52 % 77 % 0 % 1025,9 hPa 0,0 l/m 0,0 km/h (0 Bft) 0 min 0,0 km/h (0 Bft)
23.09.2009 00:22 21,2 C 13,6 C 0,0 UV-I 0,0 C 52 % 77 % 0 % 1025,9 hPa 0,0 l/m 0,0 km/h (0 Bft) 0 min 0,0 km/h (0 Bft)
23.09.2009 00:24 21,2 C 13,5 C 0,0 UV-I 0,0 C 52 % 77 % 0 % 1025,9 hPa 0,0 l/m 0,0 km/h (0 Bft) 0 min 0,0 km/h (0 Bft)
23.09.2009 00:26 21,3 C 13,5 C 0,0 UV-I 0,0 C 52 % 77 % 0 % 1025,9 hPa 0,0 l/m 0,0 km/h (0 Bft) 0 min 0,0 km/h (0 Bft)
23.09.2009 00:28 21,3 C 13,4 C 0,0 UV-I 0,0 C 52 % 78 % 0 % 1025,9 hPa 0,0 l/m 0,0 km/h (0 Bft) 0 min 0,0 km/h (0 Bft)
23.09.2009 00:30 21,2 C 13,5 C 0,0 UV-I 0,0 C 52 % 78 % 0 % 1025,9 hPa 0,0 l/m 0,0 km/h (0 Bft) 0 min 0,0 km/h (0 Bft)
23.09.2009 00:32 21,2 C 13,4 C 0,0 UV-I 0,0 C 52 % 78 % 0 % 1025,9 hPa 0,0 l/m 0,0 km/h (0 Bft) 0 min 0,0 km/h (0 Bft)
23.09.2009 00:34 21,2 C 13,3 C 0,0 UV-I 0,0 C 52 % 78 % 0 % 1025,9 hPa 0,0 l/m 0,0 km/h (0 Bft) 0 min 0,0 km/h (0 Bft)
23.09.2009 00:36 21,2 C 13,2 C 0,0 UV-I 0,0 C 52 % 78 % 0 % 1026,4 hPa 0,0 l/m 0,0 km/h (0 Bft) 0 min 0,0 km/h (0 Bft)
23.09.2009 00:38 21,2 C 13,2 C 0,0 UV-I 0,0 C 52 % 78 % 0 % 1026,4 hPa 0,0 l/m 0,0 km/h (0 Bft) 0 min 0,0 km/h (0 Bft)
23.09.2009 00:40 21,2 C 13,2 C 0,0 UV-I 0,0 C 52 % 79 % 0 % 1026,4 hPa 0,0 l/m 0,0 km/h (0 Bft) 0 min 0,0 km/h (0 Bft)
23.09.2009 00:42 21,2 C 13,2 C 0,0 UV-I 0,0 C 52 % 79 % 0 % 1026,4 hPa 0,0 l/m 0,0 km/h (0 Bft) 0 min 0,0 km/h (0 Bft)
23.09.2009 00:44 21,2 C 13,2 C 0,0 UV-I 0,0 C 52 % 79 % 0 % 1026,4 hPa 0,0 l/m 0,0 km/h (0 Bft) 0 min 0,0 km/h (0 Bft)
23.09.2009 00:46 21,2 C 13,1 C 0,0 UV-I 0,0 C 52 % 79 % 0 % 1026,4 hPa 0,0 l/m 0,0 km/h (0 Bft) 0 min 0,0 km/h (0 Bft)
23.09.2009 00:48 21,2 C 13,0 C 0,0 UV-I 0,0 C 53 % 79 % 0 % 1026,4 hPa 0,0 l/m 0,0 km/h (0 Bft) 0 min 0,0 km/h (0 Bft)
23.09.2009 00:50 21,2 C 13,1 C 0,0 UV-I 0,0 C 53 % 80 % 0 % 1026,4 hPa 0,0 l/m 0,0 km/h (0 Bft) 0 min 0,0 km/h (0 Bft)
23.09.2009 00:52 21,2 C 13,0 C 0,0 UV-I 0,0 C 53 % 80 % 0 % 1026,4 hPa 0,0 l/m 0,0 km/h (0 Bft) 0 min 0,0 km/h (0 Bft)
23.09.2009 00:54 21,2 C 13,0 C 0,0 UV-I 0,0 C 53 % 80 % 0 % 1026,4 hPa 0,0 l/m 0,0 km/h (0 Bft) 0 min 0,0 km/h (0 Bft)
23.09.2009 00:56 21,1 C 12,9 C 0,0 UV-I 0,0 C 53 % 80 % 0 % 1026,0 hPa 0,0 l/m 0,0 km/h (0 Bft) 0 min 0,0 km/h (0 Bft)
23.09.2009 00:58 21,1 C 12,9 C 0,0 UV-I 0,0 C 53 % 80 % 0 % 1026,0 hPa 0,0 l/m 0,0 km/h (0 Bft) 0 min 0,0 km/h (0 Bft)
23.09.2009 01:00 21,1 C 12,8 C 0,0 UV-I 0,0 C 53 % 80 % 0 % 1026,0 hPa 0,0 l/m 0,0 km/h (0 Bft) 0 min 0,0 km/h (0 Bft)
23.09.2009 01:02 21,1 C 12,8 C 0,0 UV-I 0,0 C 53 % 80 % 0 % 1026,0 hPa 0,0 l/m 0,0 km/h (0 Bft) 0 min 0,0 km/h (0 Bft)
23.09.2009 01:06 21,1 C 12,8 C 0,0 UV-I 0,0 C 53 % 81 % 0 % 1026,0 hPa 0,0 l/m 0,0 km/h (0 Bft) 0 min 0,0 km/h (0 Bft)
23.09.2009 01:08 21,1 C 12,7 C 0,0 UV-I 0,0 C 53 % 81 % 0 % 1026,0 hPa 0,0 l/m 0,0 km/h (0 Bft) 0 min 0,0 km/h (0 Bft)
23.09.2009 01:10 21,1 C 12,7 C 0,0 UV-I 0,0 C 53 % 81 % 0 % 1026,0 hPa 0,0 l/m 0,0 km/h (0 Bft) 0 min 0,0 km/h (0 Bft)
23.09.2009 01:12 21,0 C 12,6 C 0,0 UV-I 0,0 C 53 % 81 % 0 % 1026,0 hPa 0,0 l/m 0,0 km/h (0 Bft) 0 min 0,0 km/h (0 Bft)
23.09.2009 01:14 21,0 C 12,7 C 0,0 UV-I 0,0 C 53 % 81 % 0 % 1026,0 hPa 0,0 l/m 0,0 km/h (0 Bft) 0 min 0,0 km/h (0 Bft)
23.09.2009 01:16 21,0 C 12,7 C 0,0 UV-I 0,0 C 53 % 81 % 0 % 1025,8 hPa 0,0 l/m 0,0 km/h (0 Bft) 0 min 0,0 km/h (0 Bft)
23.09.2009 01:18 21,0 C 12,5 C 0,0 UV-I 0,0 C 53 % 81 % 0 % 1025,8 hPa 0,0 l/m 0,0 km/h (0 Bft) 0 min 0,0 km/h (0 Bft)
23.09.2009 01:20 21,0 C 12,5 C 0,0 UV-I 0,0 C 53 % 81 % 0 % 1025,8 hPa 0,0 l/m 0,0 km/h (0 Bft) 0 min 0,0 km/h (0 Bft)
23.09.2009 01:22 21,0 C 12,4 C 0,0 UV-I 0,0 C 53 % 82 % 0 % 1025,8 hPa 0,0 l/m 0,0 km/h (0 Bft) 0 min 0,0 km/h (0 Bft)
23.09.2009 01:24 21,0 C 12,4 C 0,0 UV-I 0,0 C 53 % 82 % 0 % 1025,8 hPa 0,0 l/m 0,0 km/h (0 Bft) 0 min 0,0 km/h (0 Bft)
23.09.2009 01:26 21,0 C 12,5 C 0,0 UV-I 0,0 C 53 % 82 % 0 % 1025,8 hPa 0,0 l/m 0,0 km/h (0 Bft) 0 min 0,0 km/h (0 Bft)
23.09.2009 01:28 21,0 C 12,4 C 0,0 UV-I 0,0 C 53 % 82 % 0 % 1025,8 hPa 0,0 l/m 0,0 km/h (0 Bft) 0 min 0,0 km/h (0 Bft)
23.09.2009 01:30 21,0 C 12,3 C 0,0 UV-I 0,0 C 53 % 82 % 0 % 1025,8 hPa 0,0 l/m 0,0 km/h (0 Bft) 0 min 0,0 km/h (0 Bft)
23.09.2009 01:32 20,9 C 12,3 C 0,0 UV-I 0,0 C 53 % 82 % 0 % 1025,8 hPa 0,0 l/m 0,0 km/h (0 Bft) 0 min 0,0 km/h (0 Bft)
23.09.2009 01:34 21,0 C 12,3 C 0,0 UV-I 0,0 C 54 % 82 % 0 % 1025,8 hPa 0,0 l/m 0,0 km/h (0 Bft) 0 min 0,0 km/h (0 Bft)
23.09.2009 01:36 20,9 C 12,2 C 0,0 UV-I 0,0 C 54 % 82 % 0 % 1025,7 hPa 0,0 l/m 0,0 km/h (0 Bft) 0 min 0,0 km/h (0 Bft)
23.09.2009 01:38 20,9 C 12,3 C 0,0 UV-I 0,0 C 54 % 82 % 0 % 1025,7 hPa 0,0 l/m 0,0 km/h (0 Bft) 0 min 0,0 km/h (0 Bft)
23.09.2009 01:40 20,9 C 12,2 C 0,0 UV-I 0,0 C 54 % 83 % 0 % 1025,7 hPa 0,0 l/m 0,0 km/h (0 Bft) 0 min 0,0 km/h (0 Bft)
23.09.2009 01:42 21,0 C 12,1 C 0,0 UV-I 0,0 C 54 % 83 % 0 % 1025,7 hPa 0,0 l/m 0,0 km/h (0 Bft) 0 min 0,0 km/h (0 Bft)
23.09.2009 01:46 20,9 C 12,1 C 0,0 UV-I 0,0 C 53 % 83 % 0 % 1025,7 hPa 0,0 l/m 0,0 km/h (0 Bft) 0 min 0,0 km/h (0 Bft)
23.09.2009 01:48 20,9 C 12,0 C 0,0 UV-I 0,0 C 53 % 83 % 0 % 1025,7 hPa 0,0 l/m 0,0 km/h (0 Bft) 0 min 0,0 km/h (0 Bft)
23.09.2009 01:50 20,9 C 12,0 C 0,0 UV-I 0,0 C 53 % 83 % 0 % 1025,7 hPa 0,0 l/m 0,0 km/h (0 Bft) 0 min 0,0 km/h (0 Bft)
23.09.2009 01:52 20,9 C 12,0 C 0,0 UV-I 0,0 C 53 % 83 % 0 % 1025,7 hPa 0,0 l/m 0,0 km/h (0 Bft) 0 min 0,0 km/h (0 Bft)
23.09.2009 01:54 20,9 C 12,0 C 0,0 UV-I 0,0 C 53 % 83 % 0 % 1025,7 hPa 0,0 l/m 0,0 km/h (0 Bft) 0 min 0,0 km/h (0 Bft)
23.09.2009 01:56 20,9 C 12,0 C 0,0 UV-I 0,0 C 53 % 84 % 0 % 1026,1 hPa 0,0 l/m 0,0 km/h (0 Bft) 0 min 0,0 km/h (0 Bft)
23.09.2009 01:58 20,8 C 11,9 C 0,0 UV-I 0,0 C 54 % 84 % 0 % 1026,1 hPa 0,0 l/m 0,0 km/h (0 Bft) 0 min 0,0 km/h (0 Bft)
23.09.2009 02:00 20,8 C 11,9 C 0,0 UV-I 0,0 C 54 % 84 % 0 % 1026,1 hPa 0,0 l/m 0,0 km/h (0 Bft) 0 min 0,0 km/h (0 Bft)
23.09.2009 02:02 20,8 C 11,8 C 0,0 UV-I 0,0 C 53 % 84 % 0 % 1026,1 hPa 0,0 l/m 0,0 km/h (0 Bft) 0 min 0,0 km/h (0 Bft)
23.09.2009 02:04 20,8 C 11,9 C 0,0 UV-I 0,0 C 54 % 84 % 0 % 1026,1 hPa 0,0 l/m 0,0 km/h (0 Bft) 0 min 0,0 km/h (0 Bft)
23.09.2009 02:06 20,8 C 11,9 C 0,0 UV-I 0,0 C 54 % 84 % 0 % 1026,1 hPa 0,0 l/m 0,0 km/h (0 Bft) 0 min 0,0 km/h (0 Bft)
23.09.2009 02:08 20,8 C 11,8 C 0,0 UV-I 0,0 C 54 % 84 % 0 % 1026,1 hPa 0,0 l/m 0,0 km/h (0 Bft) 0 min 0,0 km/h (0 Bft)
23.09.2009 02:10 20,8 C 11,7 C 0,0 UV-I 0,0 C 54 % 84 % 0 % 1026,1 hPa 0,0 l/m 0,0 km/h (0 Bft) 0 min 0,0 km/h (0 Bft)
23.09.2009 02:12 20,8 C 11,7 C 0,0 UV-I 0,0 C 54 % 84 % 0 % 1026,1 hPa 0,0 l/m 0,0 km/h (0 Bft) 0 min 0,0 km/h (0 Bft)
23.09.2009 02:14 20,8 C 11,7 C 0,0 UV-I 0,0 C 54 % 84 % 0 % 1026,1 hPa 0,0 l/m 0,0 km/h (0 Bft) 0 min 0,0 km/h (0 Bft)
23.09.2009 02:16 20,7 C 11,6 C 0,0 UV-I 0,0 C 54 % 85 % 0 % 1025,8 hPa 0,0 l/m 0,0 km/h (0 Bft) 0 min 0,0 km/h (0 Bft)
23.09.2009 02:18 20,7 C 11,6 C 0,0 UV-I 0,0 C 54 % 85 % 0 % 1025,8 hPa 0,0 l/m 0,0 km/h (0 Bft) 0 min 0,0 km/h (0 Bft)
23.09.2009 02:20 20,7 C 11,7 C 0,0 UV-I 0,0 C 54 % 85 % 0 % 1025,8 hPa 0,0 l/m 0,0 km/h (0 Bft) 0 min 0,0 km/h (0 Bft)
23.09.2009 02:22 20,7 C 11,6 C 0,0 UV-I 0,0 C 54 % 85 % 0 % 1025,8 hPa 0,0 l/m 0,0 km/h (0 Bft) 0 min 0,0 km/h (0 Bft)
23.09.2009 02:24 20,7 C 11,6 C 0,0 UV-I 0,0 C 54 % 85 % 0 % 1025,8 hPa 0,0 l/m 0,0 km/h (0 Bft) 0 min 0,0 km/h (0 Bft)
23.09.2009 02:26 20,7 C 11,5 C 0,0 UV-I 0,0 C 54 % 85 % 0 % 1025,8 hPa 0,0 l/m 0,0 km/h (0 Bft) 0 min 0,0 km/h (0 Bft)
23.09.2009 02:28 20,7 C 11,5 C 0,0 UV-I 0,0 C 54 % 85 % 0 % 1025,8 hPa 0,0 l/m 0,0 km/h (0 Bft) 0 min 0,0 km/h (0 Bft)
23.09.2009 02:30 20,6 C 11,5 C 0,0 UV-I 0,0 C 54 % 85 % 0 % 1025,8 hPa 0,0 l/m 0,0 km/h (0 Bft) 0 min 0,0 km/h (0 Bft)
23.09.2009 02:32 20,6 C 11,5 C 0,0 UV-I 0,0 C 54 % 86 % 0 % 1025,8 hPa 0,0 l/m 0,0 km/h (0 Bft) 0 min 0,0 km/h (0 Bft)
23.09.2009 02:34 20,6 C 11,5 C 0,0 UV-I 0,0 C 54 % 86 % 0 % 1025,8 hPa 0,0 l/m 0,0 km/h (0 Bft) 0 min 0,0 km/h (0 Bft)
23.09.2009 02:36 20,6 C 11,5 C 0,0 UV-I 0,0 C 54 % 86 % 0 % 1025,8 hPa 0,0 l/m 0,0 km/h (0 Bft) 0 min 0,0 km/h (0 Bft)
23.09.2009 02:38 20,6 C 11,5 C 0,0 UV-I 0,0 C 54 % 86 % 0 % 1025,8 hPa 0,0 l/m 0,0 km/h (0 Bft) 0 min 0,0 km/h (0 Bft)
23.09.2009 02:40 20,6 C 11,5 C 0,0 UV-I 0,0 C 54 % 87 % 0 % 1025,8 hPa 0,0 l/m 0,0 km/h (0 Bft) 0 min 0,0 km/h (0 Bft)
23.09.2009 02:44 20,6 C 11,5 C 0,0 UV-I 0,0 C 55 % 87 % 0 % 1025,8 hPa 0,0 l/m 0,0 km/h (0 Bft) 0 min 0,0 km/h (0 Bft)
23.09.2009 02:46 20,6 C 11,5 C 0,0 UV-I 0,0 C 55 % 87 % 0 % 1025,8 hPa 0,0 l/m 0,0 km/h (0 Bft) 0 min 0,0 km/h (0 Bft)
23.09.2009 02:48 20,6 C 11,5 C 0,0 UV-I 0,0 C 55 % 87 % 0 % 1025,8 hPa 0,0 l/m 0,0 km/h (0 Bft) 0 min 0,0 km/h (0 Bft)
23.09.2009 02:50 20,6 C 11,5 C 0,0 UV-I 0,0 C 55 % 87 % 0 % 1025,8 hPa 0,0 l/m 0,0 km/h (0 Bft) 0 min 0,0 km/h (0 Bft)
23.09.2009 02:54 20,5 C 11,5 C 0,0 UV-I 0,0 C 55 % 87 % 0 % 1025,8 hPa 0,0 l/m 0,0 km/h (0 Bft) 0 min 0,0 km/h (0 Bft)
23.09.2009 02:56 20,5 C 11,6 C 0,0 UV-I 0,0 C 55 % 87 % 0 % 1026,0 hPa 0,0 l/m 0,0 km/h (0 Bft) 0 min 0,0 km/h (0 Bft)
23.09.2009 02:58 20,5 C 11,7 C 0,0 UV-I 0,0 C 55 % 87 % 0 % 1026,0 hPa 0,0 l/m 0,0 km/h (0 Bft) 0 min 0,0 km/h (0 Bft)
23.09.2009 03:00 20,5 C 11,7 C 0,0 UV-I 0,0 C 55 % 87 % 0 % 1026,0 hPa 0,0 l/m 0,2 km/h (0 Bft) 0 min 0,0 km/h (0 Bft)
23.09.2009 03:02 20,5 C 11,6 C 0,0 UV-I 0,0 C 54 % 88 % 0 % 1026,0 hPa 0,0 l/m 0,2 km/h (0 Bft) 0 min 2,4 km/h (1 Bft)
23.09.2009 03:04 20,5 C 11,6 C 0,0 UV-I 0,0 C 54 % 88 % 0 % 1026,0 hPa 0,0 l/m 0,2 km/h (0 Bft) 0 min 2,4 km/h (1 Bft)
23.09.2009 03:06 20,4 C 11,7 C 0,0 UV-I 0,0 C 55 % 88 % 0 % 1026,0 hPa 0,0 l/m 0,5 km/h (0 Bft) 0 min 0,0 km/h (0 Bft)
23.09.2009 03:08 20,5 C 11,7 C 0,0 UV-I 0,0 C 55 % 88 % 0 % 1026,0 hPa 0,0 l/m 0,5 km/h (0 Bft) 0 min 0,0 km/h (0 Bft)
23.09.2009 03:10 20,4 C 11,8 C 0,0 UV-I 0,0 C 55 % 88 % 0 % 1026,0 hPa 0,0 l/m 0,2 km/h (0 Bft) 0 min 0,0 km/h (0 Bft)
23.09.2009 03:14 20,4 C 11,9 C 0,0 UV-I 0,0 C 55 % 88 % 0 % 1026,0 hPa 0,0 l/m 0,2 km/h (0 Bft) 0 min 0,0 km/h (0 Bft)
23.09.2009 03:18 20,4 C 11,9 C 0,0 UV-I 0,0 C 55 % 88 % 0 % 1025,9 hPa 0,0 l/m 0,2 km/h (0 Bft) 0 min 0,0 km/h (0 Bft)
23.09.2009 03:20 20,4 C 11,9 C 0,0 UV-I 0,0 C 55 % 88 % 0 % 1025,9 hPa 0,0 l/m 0,2 km/h (0 Bft) 0 min 4,6 km/h (1 Bft)
23.09.2009 03:22 20,4 C 11,9 C 0,0 UV-I 0,0 C 55 % 88 % 0 % 1025,9 hPa 0,0 l/m 0,5 km/h (0 Bft) 0 min 2,4 km/h (1 Bft)
23.09.2009 03:24 20,4 C 11,9 C 0,0 UV-I 0,0 C 55 % 88 % 0 % 1025,9 hPa 0,0 l/m 0,5 km/h (0 Bft) 0 min 0,0 km/h (0 Bft)
23.09.2009 03:26 20,4 C 12,0 C 0,0 UV-I 0,0 C 55 % 89 % 0 % 1025,9 hPa 0,0 l/m 0,5 km/h (0 Bft) 0 min 2,6 km/h (1 Bft)
23.09.2009 03:28 20,4 C 11,9 C 0,0 UV-I 0,0 C 55 % 88 % 0 % 1025,9 hPa 0,0 l/m 0,7 km/h (0 Bft) 0 min 2,4 km/h (1 Bft)
23.09.2009 03:30 20,4 C 11,9 C 0,0 UV-I 0,0 C 55 % 88 % 0 % 1025,9 hPa 0,0 l/m 0,7 km/h (0 Bft) 0 min 0,0 km/h (0 Bft)
23.09.2009 03:32 20,4 C 11,9 C 0,0 UV-I 0,0 C 55 % 88 % 0 % 1025,9 hPa 0,0 l/m 0,7 km/h (0 Bft) 0 min 0,0 km/h (0 Bft)
23.09.2009 03:34 20,4 C 11,9 C 0,0 UV-I 0,0 C 55 % 88 % 0 % 1025,9 hPa 0,0 l/m 0,5 km/h (0 Bft) 0 min 0,0 km/h (0 Bft)
23.09.2009 03:36 20,4 C 12,0 C 0,0 UV-I 0,0 C 55 % 89 % 0 % 1025,8 hPa 0,0 l/m 0,7 km/h (0 Bft) 0 min 3,4 km/h (1 Bft)
23.09.2009 03:38 20,4 C 12,0 C 0,0 UV-I 0,0 C 55 % 89 % 0 % 1025,8 hPa 0,0 l/m 0,5 km/h (0 Bft) 0 min 0,0 km/h (0 Bft)
23.09.2009 03:40 20,4 C 12,1 C 0,0 UV-I 0,0 C 55 % 89 % 0 % 1025,8 hPa 0,0 l/m 0,2 km/h (0 Bft) 0 min 0,0 km/h (0 Bft)
23.09.2009 03:42 20,4 C 12,0 C 0,0 UV-I 0,0 C 55 % 89 % 0 % 1025,8 hPa 0,0 l/m 0,2 km/h (0 Bft) 0 min 0,0 km/h (0 Bft)
23.09.2009 03:44 20,4 C 12,0 C 0,0 UV-I 0,0 C 55 % 89 % 0 % 1025,8 hPa 0,0 l/m 0,5 km/h (0 Bft) 0 min 0,0 km/h (0 Bft)
23.09.2009 03:46 20,4 C 12,0 C 0,0 UV-I 0,0 C 55 % 89 % 0 % 1025,8 hPa 0,0 l/m 0,7 km/h (0 Bft) 0 min 0,0 km/h (0 Bft)
23.09.2009 03:48 20,4 C 12,1 C 0,0 UV-I 0,0 C 55 % 89 % 0 % 1025,8 hPa 0,0 l/m 1,0 km/h (0 Bft) 0 min 4,8 km/h (1 Bft)
23.09.2009 03:50 20,4 C 12,1 C 0,0 UV-I 0,0 C 55 % 89 % 0 % 1025,8 hPa 0,0 l/m 1,2 km/h (1 Bft) 0 min 5,5 km/h (1 Bft)
23.09.2009 03:52 20,4 C 12,2 C 0,0 UV-I 0,0 C 55 % 89 % 0 % 1025,8 hPa 0,0 l/m 1,2 km/h (1 Bft) 0 min 2,9 km/h (1 Bft)
23.09.2009 03:56 20,2 C 12,3 C 0,0 UV-I 0,0 C 55 % 89 % 0 % 1025,8 hPa 0,0 l/m 1,0 km/h (0 Bft) 0 min 2,6 km/h (1 Bft)
23.09.2009 04:00 20,2 C 12,3 C 0,0 UV-I 0,0 C 55 % 88 % 0 % 1025,8 hPa 0,0 l/m 0,7 km/h (0 Bft) 0 min 0,0 km/h (0 Bft)
23.09.2009 04:02 20,2 C 12,3 C 0,0 UV-I 0,0 C 55 % 88 % 0 % 1025,8 hPa 0,0 l/m 0,7 km/h (0 Bft) 0 min 2,6 km/h (1 Bft)
23.09.2009 04:04 20,3 C 12,3 C 0,0 UV-I 0,0 C 56 % 88 % 0 % 1025,8 hPa 0,0 l/m 0,5 km/h (0 Bft) 0 min 0,0 km/h (0 Bft)
23.09.2009 04:06 20,2 C 12,3 C 0,0 UV-I 0,0 C 56 % 88 % 0 % 1025,8 hPa 0,0 l/m 0,5 km/h (0 Bft) 0 min 2,9 km/h (1 Bft)
23.09.2009 04:08 20,3 C 12,3 C 0,0 UV-I 0,0 C 56 % 88 % 0 % 1025,8 hPa 0,0 l/m 0,5 km/h (0 Bft) 0 min 0,0 km/h (0 Bft)
23.09.2009 04:10 20,3 C 12,3 C 0,0 UV-I 0,0 C 56 % 88 % 0 % 1025,8 hPa 0,0 l/m 0,5 km/h (0 Bft) 0 min 2,9 km/h (1 Bft)
23.09.2009 04:13 20,3 C 12,4 C 0,0 UV-I 0,0 C 56 % 88 % 0 % 1025,8 hPa 0,0 l/m 0,7 km/h (0 Bft) 0 min 2,9 km/h (1 Bft)
23.09.2009 04:15 20,3 C 12,4 C 0,0 UV-I 0,0 C 56 % 88 % 0 % 1025,4 hPa 0,0 l/m 1,0 km/h (0 Bft) 0 min 0,0 km/h (0 Bft)
23.09.2009 04:16 20,3 C 12,4 C 0,0 UV-I 0,0 C 56 % 88 % 0 % 1025,4 hPa 0,0 l/m 1,0 km/h (0 Bft) 0 min 0,0 km/h (0 Bft)
23.09.2009 04:18 20,2 C 12,5 C 0,0 UV-I 0,0 C 56 % 88 % 0 % 1025,4 hPa 0,0 l/m 1,0 km/h (0 Bft) 0 min 4,3 km/h (1 Bft)
23.09.2009 04:20 20,2 C 12,4 C 0,0 UV-I 0,0 C 56 % 88 % 0 % 1025,4 hPa 0,0 l/m 1,2 km/h (1 Bft) 0 min 0,0 km/h (0 Bft)
23.09.2009 04:22 20,2 C 12,5 C 0,0 UV-I 0,0 C 56 % 88 % 0 % 1025,4 hPa 0,0 l/m 1,2 km/h (1 Bft) 0 min 0,0 km/h (0 Bft)
23.09.2009 04:24 20,2 C 12,5 C 0,0 UV-I 0,0 C 56 % 88 % 0 % 1025,4 hPa 0,0 l/m 1,0 km/h (0 Bft) 0 min 0,0 km/h (0 Bft)
23.09.2009 04:26 20,2 C 12,5 C 0,0 UV-I 0,0 C 56 % 88 % 0 % 1025,4 hPa 0,0 l/m 1,0 km/h (0 Bft) 0 min 0,0 km/h (0 Bft)
23.09.2009 04:28 20,2 C 12,6 C 0,0 UV-I 0,0 C 56 % 88 % 0 % 1025,4 hPa 0,0 l/m 1,2 km/h (1 Bft) 0 min 0,0 km/h (0 Bft)
23.09.2009 04:30 20,2 C 12,7 C 0,0 UV-I 0,0 C 56 % 88 % 0 % 1025,4 hPa 0,0 l/m 1,2 km/h (1 Bft) 0 min 6,7 km/h (2 Bft)
23.09.2009 04:32 20,2 C 12,7 C 0,0 UV-I 0,0 C 56 % 88 % 0 % 1025,4 hPa 0,0 l/m 1,4 km/h (1 Bft) 0 min 0,0 km/h (0 Bft)
23.09.2009 04:34 20,2 C 12,6 C 0,0 UV-I 0,1 C 56 % 88 % 0 % 1025,4 hPa 0,0 l/m 1,4 km/h (1 Bft) 0 min 0,0 km/h (0 Bft)
23.09.2009 04:36 20,2 C 12,7 C 0,0 UV-I 0,1 C 56 % 88 % 0 % 1025,4 hPa 0,0 l/m 1,4 km/h (1 Bft) 0 min 2,4 km/h (1 Bft)
23.09.2009 04:38 20,2 C 12,7 C 0,0 UV-I 0,1 C 56 % 88 % 0 % 1025,4 hPa 0,0 l/m 1,4 km/h (1 Bft) 0 min 3,4 km/h (1 Bft)
23.09.2009 04:40 20,2 C 12,8 C 0,0 UV-I 0,1 C 56 % 88 % 0 % 1025,4 hPa 0,0 l/m 1,2 km/h (1 Bft) 0 min 0,0 km/h (0 Bft)
23.09.2009 04:42 20,2 C 12,9 C 0,0 UV-I 0,0 C 56 % 88 % 0 % 1025,4 hPa 0,0 l/m 1,0 km/h (0 Bft) 0 min 0,0 km/h (0 Bft)
23.09.2009 04:44 20,2 C 12,8 C 0,0 UV-I 0,2 C 56 % 88 % 0 % 1025,4 hPa 0,0 l/m 1,0 km/h (0 Bft) 0 min 4,8 km/h (1 Bft)
23.09.2009 04:46 20,2 C 12,8 C 0,0 UV-I 0,2 C 56 % 88 % 0 % 1025,4 hPa 0,0 l/m 1,2 km/h (1 Bft) 0 min 2,4 km/h (1 Bft)
23.09.2009 04:48 20,2 C 12,9 C 0,0 UV-I 0,1 C 56 % 88 % 0 % 1025,4 hPa 0,0 l/m 1,2 km/h (1 Bft) 0 min 5,5 km/h (1 Bft)
23.09.2009 04:50 20,2 C 12,9 C 0,0 UV-I 0,2 C 56 % 88 % 0 % 1025,4 hPa 0,0 l/m 1,7 km/h (1 Bft) 0 min 2,4 km/h (1 Bft)
23.09.2009 04:52 20,2 C 13,1 C 0,0 UV-I 0,1 C 56 % 88 % 0 % 1025,4 hPa 0,0 l/m 1,9 km/h (1 Bft) 0 min 3,6 km/h (1 Bft)
23.09.2009 04:54 20,2 C 13,1 C 0,0 UV-I 0,1 C 56 % 88 % 0 % 1025,4 hPa 0,0 l/m 2,2 km/h (1 Bft) 0 min 0,0 km/h (0 Bft)
23.09.2009 04:56 20,2 C 13,1 C 0,0 UV-I 0,1 C 56 % 88 % 0 % 1025,7 hPa 0,0 l/m 2,4 km/h (1 Bft) 0 min 0,0 km/h (0 Bft)
23.09.2009 04:58 20,2 C 13,1 C 0,0 UV-I 0,2 C 56 % 88 % 0 % 1025,7 hPa 0,0 l/m 2,9 km/h (1 Bft) 0 min 4,8 km/h (1 Bft)
23.09.2009 05:00 20,2 C 13,2 C 0,0 UV-I 0,1 C 57 % 88 % 0 % 1025,7 hPa 0,0 l/m 2,6 km/h (1 Bft) 0 min 8,2 km/h (2 Bft)
23.09.2009 05:02 20,1 C 13,2 C 0,0 UV-I 0,2 C 57 % 88 % 0 % 1025,7 hPa 0,0 l/m 2,6 km/h (1 Bft) 0 min 3,4 km/h (1 Bft)
23.09.2009 05:04 20,1 C 13,3 C 0,0 UV-I 0,1 C 57 % 87 % 0 % 1025,7 hPa 0,0 l/m 2,6 km/h (1 Bft) 0 min 4,1 km/h (1 Bft)
23.09.2009 05:06 20,1 C 13,2 C 0,0 UV-I 0,2 C 57 % 87 % 0 % 1025,7 hPa 0,0 l/m 2,6 km/h (1 Bft) 0 min 3,4 km/h (1 Bft)
23.09.2009 05:08 20,1 C 13,2 C 0,0 UV-I 0,2 C 57 % 87 % 0 % 1025,7 hPa 0,0 l/m 2,4 km/h (1 Bft) 0 min 3,1 km/h (1 Bft)
23.09.2009 05:10 20,1 C 13,3 C 0,0 UV-I 0,1 C 57 % 87 % 0 % 1025,7 hPa 0,0 l/m 2,2 km/h (1 Bft) 0 min 11,1 km/h (2 Bft)
23.09.2009 05:12 20,1 C 13,3 C 0,0 UV-I 0,1 C 57 % 87 % 0 % 1025,7 hPa 0,0 l/m 2,6 km/h (1 Bft) 0 min 3,4 km/h (1 Bft)
23.09.2009 05:14 20,1 C 13,3 C 0,0 UV-I 0,1 C 57 % 87 % 0 % 1025,7 hPa 0,0 l/m 2,9 km/h (1 Bft) 0 min 2,9 km/h (1 Bft)
23.09.2009 05:16 20,1 C 13,4 C 0,0 UV-I 0,0 C 57 % 87 % 0 % 1025,4 hPa 0,0 l/m 2,9 km/h (1 Bft) 0 min 6,0 km/h (2 Bft)
23.09.2009 05:18 20,1 C 13,5 C 0,0 UV-I 0,0 C 57 % 87 % 0 % 1025,4 hPa 0,0 l/m 3,4 km/h (1 Bft) 0 min 8,2 km/h (2 Bft)
23.09.2009 05:20 20,1 C 13,4 C 0,0 UV-I 0,1 C 57 % 87 % 0 % 1025,4 hPa 0,0 l/m 3,8 km/h (1 Bft) 0 min 11,5 km/h (2 Bft)
23.09.2009 05:22 20,1 C 13,4 C 0,0 UV-I 0,1 C 57 % 87 % 0 % 1025,4 hPa 0,0 l/m 3,8 km/h (1 Bft) 0 min 3,6 km/h (1 Bft)
23.09.2009 05:24 20,1 C 13,5 C 0,0 UV-I 0,0 C 57 % 87 % 0 % 1025,4 hPa 0,0 l/m 3,1 km/h (1 Bft) 0 min 0,0 km/h (0 Bft)
23.09.2009 05:26 20,1 C 13,5 C 0,0 UV-I 0,0 C 57 % 87 % 0 % 1025,4 hPa 0,0 l/m 2,9 km/h (1 Bft) 0 min 0,0 km/h (0 Bft)
23.09.2009 05:28 20,1 C 13,5 C 0,0 UV-I 0,0 C 57 % 87 % 0 % 1025,4 hPa 0,0 l/m 2,6 km/h (1 Bft) 0 min 0,0 km/h (0 Bft)
23.09.2009 05:30 20,1 C 13,5 C 0,0 UV-I 0,0 C 57 % 87 % 0 % 1025,4 hPa 0,0 l/m 1,9 km/h (1 Bft) 0 min 0,0 km/h (0 Bft)
23.09.2009 05:32 20,1 C 13,5 C 0,0 UV-I 0,0 C 57 % 87 % 0 % 1025,4 hPa 0,0 l/m 1,2 km/h (1 Bft) 0 min 0,0 km/h (0 Bft)
23.09.2009 05:34 20,0 C 13,5 C 0,0 UV-I 0,1 C 57 % 87 % 0 % 1025,4 hPa 0,0 l/m 1,2 km/h (1 Bft) 0 min 5,8 km/h (2 Bft)
23.09.2009 05:36 20,0 C 13,6 C 0,0 UV-I 0,0 C 57 % 87 % 0 % 1025,5 hPa 0,0 l/m 1,7 km/h (1 Bft) 0 min 10,1 km/h (2 Bft)
23.09.2009 05:38 20,0 C 13,6 C 0,0 UV-I 0,0 C 57 % 87 % 0 % 1025,5 hPa 0,0 l/m 2,2 km/h (1 Bft) 0 min 4,8 km/h (1 Bft)
23.09.2009 05:40 20,1 C 13,6 C 0,0 UV-I 0,0 C 57 % 87 % 0 % 1025,5 hPa 0,0 l/m 2,4 km/h (1 Bft) 0 min 3,1 km/h (1 Bft)
23.09.2009 05:42 20,0 C 13,6 C 0,0 UV-I 0,0 C 57 % 87 % 0 % 1025,5 hPa 0,0 l/m 2,6 km/h (1 Bft) 0 min 2,6 km/h (1 Bft)
23.09.2009 05:44 20,0 C 13,6 C 0,0 UV-I 0,0 C 58 % 87 % 0 % 1025,5 hPa 0,0 l/m 2,9 km/h (1 Bft) 0 min 15,9 km/h (3 Bft)
23.09.2009 05:46 20,0 C 13,6 C 0,0 UV-I 0,0 C 58 % 87 % 0 % 1025,5 hPa 0,0 l/m 2,9 km/h (1 Bft) 0 min 5,8 km/h (2 Bft)
23.09.2009 05:48 20,1 C 13,6 C 0,0 UV-I 0,0 C 58 % 87 % 0 % 1025,5 hPa 0,0 l/m 2,2 km/h (1 Bft) 0 min 0,0 km/h (0 Bft)
23.09.2009 05:50 20,0 C 13,7 C 0,0 UV-I 0,0 C 58 % 86 % 0 % 1025,5 hPa 0,0 l/m 1,9 km/h (1 Bft) 0 min 15,9 km/h (3 Bft)
23.09.2009 05:52 20,1 C 13,7 C 0,0 UV-I 0,0 C 58 % 86 % 0 % 1025,5 hPa 0,0 l/m 2,2 km/h (1 Bft) 0 min 4,3 km/h (1 Bft)
23.09.2009 05:54 20,0 C 13,7 C 0,0 UV-I 0,0 C 58 % 86 % 0 % 1025,5 hPa 0,0 l/m 2,4 km/h (1 Bft) 0 min 2,9 km/h (1 Bft)
23.09.2009 05:56 20,0 C 13,7 C 0,0 UV-I 0,0 C 58 % 86 % 0 % 1025,4 hPa 0,0 l/m 1,9 km/h (1 Bft) 0 min 3,4 km/h (1 Bft)
23.09.2009 05:58 20,0 C 13,8 C 0,0 UV-I 0,0 C 58 % 86 % 0 % 1025,4 hPa 0,0 l/m 2,2 km/h (1 Bft) 0 min 0,0 km/h (0 Bft)
23.09.2009 06:00 20,0 C 13,8 C 0,0 UV-I 0,0 C 58 % 86 % 0 % 1025,4 hPa 0,0 l/m 2,6 km/h (1 Bft) 0 min 11,3 km/h (2 Bft)
23.09.2009 06:02 20,0 C 13,8 C 0,0 UV-I 0,0 C 58 % 86 % 0 % 1025,4 hPa 0,0 l/m 2,6 km/h (1 Bft) 0 min 3,6 km/h (1 Bft)
23.09.2009 06:04 20,0 C 13,8 C 0,0 UV-I 0,0 C 58 % 86 % 0 % 1025,4 hPa 0,0 l/m 2,6 km/h (1 Bft) 0 min 3,6 km/h (1 Bft)
23.09.2009 06:06 20,0 C 13,9 C 0,0 UV-I 0,0 C 58 % 86 % 0 % 1025,4 hPa 0,0 l/m 2,4 km/h (1 Bft) 0 min 2,6 km/h (1 Bft)
23.09.2009 06:08 20,0 C 13,9 C 0,0 UV-I 0,0 C 58 % 86 % 0 % 1025,4 hPa 0,0 l/m 2,9 km/h (1 Bft) 0 min 2,9 km/h (1 Bft)
23.09.2009 06:10 20,0 C 13,8 C 0,0 UV-I 0,0 C 58 % 86 % 0 % 1025,4 hPa 0,0 l/m 2,6 km/h (1 Bft) 0 min 0,0 km/h (0 Bft)
23.09.2009 06:12 20,0 C 13,9 C 0,0 UV-I 0,0 C 58 % 86 % 0 % 1025,4 hPa 0,0 l/m 2,6 km/h (1 Bft) 0 min 4,1 km/h (1 Bft)
23.09.2009 06:14 20,0 C 13,9 C 0,0 UV-I 0,0 C 58 % 86 % 0 % 1025,4 hPa 0,0 l/m 2,2 km/h (1 Bft) 0 min 0,0 km/h (0 Bft)
23.09.2009 06:16 20,0 C 13,9 C 0,0 UV-I 0,0 C 58 % 86 % 0 % 1025,3 hPa 0,0 l/m 2,4 km/h (1 Bft) 0 min 3,1 km/h (1 Bft)
23.09.2009 06:18 20,0 C 13,9 C 0,0 UV-I 0,0 C 58 % 86 % 0 % 1025,3 hPa 0,0 l/m 2,2 km/h (1 Bft) 0 min 2,9 km/h (1 Bft)
23.09.2009 06:20 20,0 C 13,9 C 0,0 UV-I 0,0 C 58 % 86 % 0 % 1025,3 hPa 0,0 l/m 2,4 km/h (1 Bft) 0 min 8,2 km/h (2 Bft)
23.09.2009 06:22 20,0 C 13,9 C 0,0 UV-I 0,0 C 58 % 86 % 0 % 1025,3 hPa 0,0 l/m 2,6 km/h (1 Bft) 0 min 7,5 km/h (2 Bft)
23.09.2009 06:24 20,0 C 13,9 C 0,0 UV-I 0,0 C 58 % 86 % 0 % 1025,3 hPa 0,0 l/m 2,6 km/h (1 Bft) 0 min 3,4 km/h (1 Bft)
23.09.2009 06:26 20,0 C 14,0 C 0,0 UV-I 0,0 C 58 % 86 % 0 % 1025,3 hPa 0,0 l/m 2,9 km/h (1 Bft) 0 min 3,8 km/h (1 Bft)
23.09.2009 06:28 20,0 C 14,0 C 0,0 UV-I 0,0 C 58 % 86 % 0 % 1025,3 hPa 0,0 l/m 2,6 km/h (1 Bft) 0 min 3,8 km/h (1 Bft)
23.09.2009 06:30 20,0 C 14,0 C 0,0 UV-I 0,0 C 59 % 86 % 0 % 1025,3 hPa 0,0 l/m 2,9 km/h (1 Bft) 0 min 0,0 km/h (0 Bft)
23.09.2009 06:32 20,0 C 14,1 C 0,0 UV-I 0,0 C 59 % 86 % 0 % 1025,3 hPa 0,0 l/m 2,2 km/h (1 Bft) 0 min 0,0 km/h (0 Bft)
23.09.2009 06:34 20,0 C 14,1 C 0,0 UV-I 0,0 C 59 % 86 % 0 % 1025,3 hPa 0,0 l/m 1,7 km/h (1 Bft) 0 min 4,1 km/h (1 Bft)
23.09.2009 06:36 20,0 C 14,1 C 0,0 UV-I 0,0 C 59 % 86 % 0 % 1025,3 hPa 0,0 l/m 1,4 km/h (1 Bft) 0 min 0,0 km/h (0 Bft)
23.09.2009 06:38 20,0 C 14,0 C 0,0 UV-I 0,0 C 59 % 86 % 0 % 1025,3 hPa 0,0 l/m 1,2 km/h (1 Bft) 0 min 0,0 km/h (0 Bft)
23.09.2009 06:40 20,0 C 14,0 C 0,0 UV-I 0,0 C 59 % 86 % 0 % 1025,3 hPa 0,0 l/m 1,0 km/h (0 Bft) 0 min 2,4 km/h (1 Bft)
23.09.2009 06:42 20,0 C 14,0 C 0,0 UV-I 0,0 C 59 % 86 % 0 % 1025,3 hPa 0,0 l/m 1,0 km/h (0 Bft) 0 min 2,4 km/h (1 Bft)
23.09.2009 06:44 20,0 C 14,0 C 0,0 UV-I 0,0 C 59 % 86 % 0 % 1025,3 hPa 0,0 l/m 1,2 km/h (1 Bft) 0 min 3,8 km/h (1 Bft)
23.09.2009 06:46 20,0 C 14,0 C 0,0 UV-I 0,0 C 59 % 86 % 0 % 1025,3 hPa 0,0 l/m 1,0 km/h (0 Bft) 0 min 2,4 km/h (1 Bft)
23.09.2009 06:48 20,0 C 14,1 C 0,0 UV-I 0,0 C 59 % 86 % 0 % 1025,3 hPa 0,0 l/m 1,0 km/h (0 Bft) 0 min 6,5 km/h (2 Bft)
23.09.2009 06:50 20,0 C 14,0 C 0,0 UV-I 0,0 C 59 % 86 % 0 % 1025,3 hPa 0,0 l/m 1,0 km/h (0 Bft) 0 min 0,0 km/h (0 Bft)
23.09.2009 06:52 20,0 C 14,1 C 0,0 UV-I 0,0 C 59 % 86 % 0 % 1025,3 hPa 0,0 l/m 0,7 km/h (0 Bft) 0 min 3,1 km/h (1 Bft)
23.09.2009 06:54 20,0 C 14,1 C 0,0 UV-I 0,0 C 59 % 86 % 0 % 1025,3 hPa 0,0 l/m 0,5 km/h (0 Bft) 0 min 0,0 km/h (0 Bft)
23.09.2009 06:56 20,0 C 14,1 C 0,0 UV-I 0,0 C 59 % 86 % 0 % 1025,5 hPa 0,0 l/m 0,7 km/h (0 Bft) 0 min 2,6 km/h (1 Bft)
23.09.2009 06:58 20,0 C 14,1 C 0,0 UV-I 0,0 C 59 % 86 % 0 % 1025,5 hPa 0,0 l/m 0,7 km/h (0 Bft) 0 min 2,4 km/h (1 Bft)
23.09.2009 07:00 20,0 C 14,1 C 0,0 UV-I 0,0 C 59 % 86 % 0 % 1025,5 hPa 0,0 l/m 0,7 km/h (0 Bft) 0 min 5,1 km/h (1 Bft)
23.09.2009 07:02 20,0 C 14,1 C 0,0 UV-I 0,0 C 59 % 86 % 0 % 1025,5 hPa 0,0 l/m 1,0 km/h (0 Bft) 0 min 6,0 km/h (2 Bft)
23.09.2009 07:04 20,0 C 14,1 C 0,0 UV-I 0,0 C 59 % 86 % 0 % 1025,5 hPa 0,0 l/m 1,2 km/h (1 Bft) 0 min 0,0 km/h (0 Bft)
23.09.2009 07:06 20,0 C 14,2 C 0,0 UV-I 0,0 C 59 % 86 % 0 % 1025,5 hPa 0,0 l/m 1,4 km/h (1 Bft) 0 min 2,9 km/h (1 Bft)
23.09.2009 07:08 20,0 C 14,2 C 0,0 UV-I 0,0 C 59 % 86 % 0 % 1025,5 hPa 0,0 l/m 1,4 km/h (1 Bft) 0 min 4,1 km/h (1 Bft)
23.09.2009 07:10 20,0 C 14,3 C 0,0 UV-I 0,0 C 59 % 86 % 0 % 1025,5 hPa 0,0 l/m 1,7 km/h (1 Bft) 0 min 0,0 km/h (0 Bft)
23.09.2009 07:12 20,0 C 14,2 C 0,0 UV-I 0,0 C 59 % 86 % 0 % 1025,5 hPa 0,0 l/m 1,4 km/h (1 Bft) 0 min 2,9 km/h (1 Bft)
23.09.2009 07:14 20,0 C 14,3 C 0,0 UV-I 0,0 C 59 % 86 % 0 % 1025,5 hPa 0,0 l/m 1,0 km/h (0 Bft) 0 min 4,1 km/h (1 Bft)
23.09.2009 07:16 20,0 C 14,3 C 0,0 UV-I 0,0 C 59 % 86 % 0 % 1025,6 hPa 0,0 l/m 1,2 km/h (1 Bft) 0 min 0,0 km/h (0 Bft)
23.09.2009 07:18 20,0 C 14,3 C 0,0 UV-I 0,0 C 59 % 86 % 0 % 1025,6 hPa 0,0 l/m 1,0 km/h (0 Bft) 0 min 0,0 km/h (0 Bft)
23.09.2009 07:20 20,0 C 14,3 C 0,0 UV-I 0,0 C 59 % 86 % 0 % 1025,6 hPa 0,0 l/m 1,0 km/h (0 Bft) 0 min 0,0 km/h (0 Bft)
23.09.2009 07:24 20,0 C 14,3 C 0,0 UV-I 0,0 C 59 % 86 % 0 % 1025,6 hPa 0,0 l/m 1,2 km/h (1 Bft) 0 min 6,7 km/h (2 Bft)
23.09.2009 07:26 20,0 C 14,3 C 0,0 UV-I 0,0 C 59 % 86 % 0 % 1025,6 hPa 0,0 l/m 1,4 km/h (1 Bft) 0 min 6,3 km/h (2 Bft)
23.09.2009 07:28 20,0 C 14,3 C 0,0 UV-I 0,0 C 60 % 86 % 0 % 1025,6 hPa 0,0 l/m 1,2 km/h (1 Bft) 0 min 0,0 km/h (0 Bft)
23.09.2009 07:30 20,0 C 14,2 C 0,0 UV-I 0,0 C 59 % 86 % 0 % 1025,6 hPa 0,0 l/m 1,4 km/h (1 Bft) 0 min 3,6 km/h (1 Bft)
23.09.2009 07:32 20,0 C 14,2 C 0,0 UV-I 0,0 C 59 % 86 % 0 % 1025,6 hPa 0,0 l/m 1,4 km/h (1 Bft) 0 min 2,6 km/h (1 Bft)
23.09.2009 07:34 20,0 C 14,2 C 0,0 UV-I 0,0 C 59 % 86 % 0 % 1025,6 hPa 0,0 l/m 1,2 km/h (1 Bft) 0 min 0,0 km/h (0 Bft)
23.09.2009 07:36 20,0 C 14,2 C 0,0 UV-I 0,0 C 60 % 86 % 0 % 1025,8 hPa 0,0 l/m 1,2 km/h (1 Bft) 0 min 4,1 km/h (1 Bft)
23.09.2009 07:38 20,0 C 14,2 C 0,0 UV-I 0,0 C 60 % 86 % 0 % 1025,8 hPa 0,0 l/m 1,4 km/h (1 Bft) 0 min 0,0 km/h (0 Bft)
23.09.2009 07:40 20,0 C 14,3 C 0,0 UV-I 0,0 C 60 % 86 % 0 % 1025,8 hPa 0,0 l/m 1,7 km/h (1 Bft) 0 min 5,5 km/h (1 Bft)
23.09.2009 07:42 20,0 C 14,3 C 0,0 UV-I 0,0 C 60 % 86 % 0 % 1025,8 hPa 0,0 l/m 1,4 km/h (1 Bft) 0 min 0,0 km/h (0 Bft)
23.09.2009 07:44 20,0 C 14,3 C 0,0 UV-I 0,0 C 60 % 86 % 0 % 1025,8 hPa 0,0 l/m 1,7 km/h (1 Bft) 0 min 2,9 km/h (1 Bft)
23.09.2009 07:46 20,0 C 14,3 C 0,0 UV-I 0,0 C 60 % 86 % 0 % 1025,8 hPa 0,0 l/m 1,7 km/h (1 Bft) 0 min 0,0 km/h (0 Bft)
23.09.2009 07:48 20,0 C 14,3 C 0,0 UV-I 0,0 C 60 % 86 % 0 % 1025,8 hPa 0,0 l/m 1,7 km/h (1 Bft) 0 min 9,6 km/h (2 Bft)
23.09.2009 07:50 20,0 C 14,3 C 0,0 UV-I 0,0 C 60 % 86 % 0 % 1025,8 hPa 0,0 l/m 1,4 km/h (1 Bft) 0 min 0,0 km/h (0 Bft)
23.09.2009 07:52 20,0 C 14,3 C 0,0 UV-I 0,0 C 60 % 86 % 0 % 1025,8 hPa 0,0 l/m 1,7 km/h (1 Bft) 0 min 3,8 km/h (1 Bft)
23.09.2009 07:54 20,0 C 14,3 C 0,0 UV-I 0,0 C 60 % 86 % 0 % 1025,8 hPa 0,0 l/m 1,4 km/h (1 Bft) 0 min 0,0 km/h (0 Bft)
23.09.2009 07:56 20,0 C 14,3 C 0,0 UV-I 0,0 C 60 % 86 % 0 % 1025,9 hPa 0,0 l/m 1,4 km/h (1 Bft) 0 min 3,6 km/h (1 Bft)
23.09.2009 07:58 20,0 C 14,3 C 0,0 UV-I 0,0 C 60 % 86 % 0 % 1025,9 hPa 0,0 l/m 1,7 km/h (1 Bft) 0 min 3,8 km/h (1 Bft)
23.09.2009 08:00 20,0 C 14,3 C 0,0 UV-I 0,0 C 60 % 86 % 0 % 1025,9 hPa 0,0 l/m 1,4 km/h (1 Bft) 0 min 3,6 km/h (1 Bft)
23.09.2009 08:02 20,0 C 14,3 C 0,0 UV-I 0,0 C 60 % 86 % 0 % 1025,9 hPa 0,0 l/m 1,4 km/h (1 Bft) 0 min 4,3 km/h (1 Bft)
23.09.2009 08:04 20,0 C 14,3 C 0,0 UV-I 0,0 C 60 % 86 % 0 % 1025,9 hPa 0,0 l/m 1,7 km/h (1 Bft) 0 min 4,1 km/h (1 Bft)
23.09.2009 08:06 20,0 C 14,3 C 0,0 UV-I 0,0 C 60 % 86 % 0 % 1025,9 hPa 0,0 l/m 1,9 km/h (1 Bft) 0 min 4,1 km/h (1 Bft)
23.09.2009 08:08 20,0 C 14,3 C 0,0 UV-I 0,0 C 60 % 86 % 0 % 1025,9 hPa 0,0 l/m 1,7 km/h (1 Bft) 0 min 0,0 km/h (0 Bft)
23.09.2009 08:12 20,0 C 14,4 C 0,0 UV-I 0,0 C 60 % 86 % 0 % 1025,9 hPa 0,0 l/m 2,2 km/h (1 Bft) 0 min 6,7 km/h (2 Bft)
23.09.2009 08:14 20,0 C 14,4 C 0,1 UV-I 0,0 C 60 % 86 % 0 % 1025,9 hPa 0,0 l/m 2,4 km/h (1 Bft) 0 min 5,1 km/h (1 Bft)
23.09.2009 08:16 20,0 C 14,4 C 0,1 UV-I 0,0 C 60 % 86 % 0 % 1026,4 hPa 0,0 l/m 2,9 km/h (1 Bft) 0 min 8,4 km/h (2 Bft)
23.09.2009 08:18 20,0 C 14,4 C 0,1 UV-I 0,0 C 60 % 86 % 0 % 1026,4 hPa 0,0 l/m 3,1 km/h (1 Bft) 0 min 8,2 km/h (2 Bft)
23.09.2009 08:20 20,0 C 14,4 C 0,1 UV-I 0,0 C 60 % 86 % 0 % 1026,4 hPa 0,0 l/m 3,4 km/h (1 Bft) 0 min 0,0 km/h (0 Bft)
23.09.2009 08:22 20,0 C 14,5 C 0,1 UV-I 0,0 C 60 % 86 % 0 % 1026,4 hPa 0,0 l/m 3,1 km/h (1 Bft) 0 min 6,0 km/h (2 Bft)
23.09.2009 08:24 20,0 C 14,4 C 0,2 UV-I 0,0 C 60 % 86 % 0 % 1026,4 hPa 0,0 l/m 2,9 km/h (1 Bft) 0 min 0,0 km/h (0 Bft)
23.09.2009 08:26 20,0 C 14,4 C 0,2 UV-I 0,0 C 60 % 86 % 0 % 1026,4 hPa 0,0 l/m 2,4 km/h (1 Bft) 0 min 0,0 km/h (0 Bft)
23.09.2009 08:30 20,0 C 14,4 C 0,1 UV-I 0,0 C 60 % 86 % 0 % 1026,4 hPa 0,0 l/m 1,4 km/h (1 Bft) 0 min 6,0 km/h (2 Bft)
23.09.2009 08:32 20,0 C 14,5 C 0,1 UV-I 0,0 C 60 % 87 % 0 % 1026,4 hPa 0,0 l/m 1,9 km/h (1 Bft) 0 min 5,1 km/h (1 Bft)
23.09.2009 08:34 20,0 C 14,5 C 0,1 UV-I 0,0 C 60 % 86 % 0 % 1026,4 hPa 0,0 l/m 1,9 km/h (1 Bft) 0 min 6,7 km/h (2 Bft)
23.09.2009 08:36 20,0 C 14,5 C 0,1 UV-I 0,0 C 60 % 86 % 0 % 1026,1 hPa 0,0 l/m 2,4 km/h (1 Bft) 0 min 2,4 km/h (1 Bft)
23.09.2009 08:38 20,0 C 14,5 C 0,1 UV-I 0,0 C 60 % 87 % 0 % 1026,1 hPa 0,0 l/m 2,9 km/h (1 Bft) 0 min 6,3 km/h (2 Bft)
23.09.2009 08:42 20,0 C 14,5 C 0,1 UV-I 0,0 C 60 % 86 % 0 % 1026,1 hPa 0,0 l/m 2,6 km/h (1 Bft) 0 min 3,1 km/h (1 Bft)
23.09.2009 08:44 20,0 C 14,5 C 0,0 UV-I 0,0 C 60 % 86 % 0 % 1026,1 hPa 0,0 l/m 2,9 km/h (1 Bft) 0 min 4,3 km/h (1 Bft)
23.09.2009 08:46 20,0 C 14,5 C 0,0 UV-I 0,0 C 60 % 86 % 0 % 1026,1 hPa 0,0 l/m 2,4 km/h (1 Bft) 0 min 4,1 km/h (1 Bft)
23.09.2009 08:48 20,0 C 14,5 C 0,0 UV-I 0,1 C 60 % 86 % 3 % 1026,1 hPa 0,0 l/m 2,9 km/h (1 Bft) 0 min 3,8 km/h (1 Bft)
23.09.2009 08:50 19,9 C 14,6 C 0,0 UV-I 0,0 C 60 % 86 % 0 % 1026,1 hPa 0,0 l/m 2,6 km/h (1 Bft) 0 min 7,0 km/h (2 Bft)
23.09.2009 08:52 19,9 C 14,6 C 0,0 UV-I 0,1 C 61 % 86 % 3 % 1026,1 hPa 0,0 l/m 2,4 km/h (1 Bft) 0 min 0,0 km/h (0 Bft)
23.09.2009 08:54 19,9 C 14,7 C 0,0 UV-I 0,0 C 61 % 86 % 0 % 1026,1 hPa 0,0 l/m 1,7 km/h (1 Bft) 0 min 2,9 km/h (1 Bft)
23.09.2009 08:56 19,9 C 14,6 C 0,0 UV-I 0,1 C 61 % 86 % 3 % 1026,3 hPa 0,0 l/m 1,7 km/h (1 Bft) 0 min 6,7 km/h (2 Bft)
23.09.2009 08:58 19,9 C 14,7 C 0,1 UV-I 0,1 C 61 % 86 % 3 % 1026,3 hPa 0,0 l/m 1,9 km/h (1 Bft) 0 min 0,0 km/h (0 Bft)
23.09.2009 09:00 20,0 C 14,7 C 0,1 UV-I 0,2 C 61 % 86 % 6 % 1026,3 hPa 0,0 l/m 1,9 km/h (1 Bft) 0 min 4,1 km/h (1 Bft)
23.09.2009 09:02 19,9 C 14,7 C 0,1 UV-I 0,2 C 61 % 86 % 6 % 1026,3 hPa 0,0 l/m 1,9 km/h (1 Bft) 0 min 0,0 km/h (0 Bft)
23.09.2009 09:04 19,9 C 14,7 C 0,2 UV-I 0,2 C 61 % 86 % 6 % 1026,3 hPa 0,0 l/m 1,9 km/h (1 Bft) 0 min 2,9 km/h (1 Bft)
23.09.2009 09:06 19,9 C 14,7 C 0,2 UV-I 0,3 C 61 % 86 % 9 % 1026,3 hPa 0,0 l/m 2,4 km/h (1 Bft) 0 min 7,2 km/h (2 Bft)
23.09.2009 09:08 19,9 C 14,9 C 0,2 UV-I 0,1 C 61 % 86 % 3 % 1026,3 hPa 0,0 l/m 2,2 km/h (1 Bft) 0 min 0,0 km/h (0 Bft)
23.09.2009 09:10 19,9 C 14,8 C 0,2 UV-I 0,2 C 61 % 86 % 6 % 1026,3 hPa 0,0 l/m 2,4 km/h (1 Bft) 0 min 4,8 km/h (1 Bft)
23.09.2009 09:12 19,9 C 14,9 C 0,2 UV-I 0,2 C 61 % 86 % 6 % 1026,3 hPa 0,0 l/m 2,6 km/h (1 Bft) 0 min 11,1 km/h (2 Bft)
23.09.2009 09:14 19,9 C 14,9 C 0,6 UV-I 0,3 C 61 % 86 % 9 % 1026,3 hPa 0,0 l/m 2,9 km/h (1 Bft) 0 min 2,4 km/h (1 Bft)
23.09.2009 09:16 19,9 C 14,8 C 0,6 UV-I 0,4 C 61 % 86 % 11 % 1026,4 hPa 0,0 l/m 3,1 km/h (1 Bft) 0 min 5,5 km/h (1 Bft)
23.09.2009 09:18 19,9 C 14,9 C 0,2 UV-I 0,3 C 61 % 86 % 9 % 1026,4 hPa 0,0 l/m 2,6 km/h (1 Bft) 0 min 2,4 km/h (1 Bft)
23.09.2009 09:20 19,9 C 14,9 C 0,2 UV-I 0,4 C 61 % 86 % 11 % 1026,4 hPa 0,0 l/m 3,1 km/h (1 Bft) 0 min 6,5 km/h (2 Bft)
23.09.2009 09:22 19,9 C 14,9 C 0,2 UV-I 0,4 C 61 % 86 % 11 % 1026,4 hPa 0,0 l/m 2,6 km/h (1 Bft) 0 min 2,6 km/h (1 Bft)
23.09.2009 09:26 19,9 C 15,1 C 0,2 UV-I 0,4 C 61 % 86 % 11 % 1026,4 hPa 0,0 l/m 2,4 km/h (1 Bft) 0 min 7,2 km/h (2 Bft)
23.09.2009 09:28 19,9 C 15,0 C 0,7 UV-I 0,6 C 61 % 86 % 17 % 1026,4 hPa 0,0 l/m 2,6 km/h (1 Bft) 0 min 3,8 km/h (1 Bft)
23.09.2009 09:30 19,9 C 15,0 C 0,7 UV-I 0,7 C 62 % 86 % 20 % 1026,4 hPa 0,0 l/m 3,1 km/h (1 Bft) 0 min 6,0 km/h (2 Bft)
23.09.2009 09:32 19,9 C 15,0 C 0,7 UV-I 0,8 C 62 % 86 % 23 % 1026,4 hPa 0,0 l/m 2,6 km/h (1 Bft) 0 min 3,1 km/h (1 Bft)
23.09.2009 09:34 19,9 C 15,2 C 0,4 UV-I 0,7 C 62 % 86 % 20 % 1026,4 hPa 0,0 l/m 2,6 km/h (1 Bft) 0 min 4,6 km/h (1 Bft)
23.09.2009 09:36 19,9 C 15,2 C 0,4 UV-I 0,6 C 62 % 86 % 17 % 1026,2 hPa 0,0 l/m 2,9 km/h (1 Bft) 0 min 3,4 km/h (1 Bft)
23.09.2009 09:38 19,9 C 15,2 C 0,2 UV-I 0,6 C 62 % 86 % 17 % 1026,2 hPa 0,0 l/m 2,9 km/h (1 Bft) 0 min 7,5 km/h (2 Bft)
23.09.2009 09:40 19,9 C 15,1 C 0,2 UV-I 0,6 C 62 % 86 % 17 % 1026,2 hPa 0,0 l/m 3,1 km/h (1 Bft) 0 min 7,5 km/h (2 Bft)
23.09.2009 09:42 19,9 C 15,2 C 0,2 UV-I 0,2 C 62 % 86 % 6 % 1026,2 hPa 0,0 l/m 2,4 km/h (1 Bft) 0 min 0,0 km/h (0 Bft)
23.09.2009 09:44 19,9 C 15,2 C 0,0 UV-I 0,0 C 62 % 87 % 0 % 1026,2 hPa 0,0 l/m 2,4 km/h (1 Bft) 0 min 0,0 km/h (0 Bft)
23.09.2009 09:46 19,9 C 15,1 C 0,0 UV-I 0,0 C 62 % 87 % 0 % 1026,2 hPa 0,0 l/m 2,4 km/h (1 Bft) 0 min 4,6 km/h (1 Bft)
23.09.2009 09:48 19,9 C 15,2 C 0,0 UV-I 0,0 C 62 % 87 % 0 % 1026,2 hPa 0,0 l/m 2,2 km/h (1 Bft) 0 min 6,3 km/h (2 Bft)
23.09.2009 09:50 19,9 C 15,2 C 0,0 UV-I 0,0 C 62 % 87 % 0 % 1026,2 hPa 0,0 l/m 1,7 km/h (1 Bft) 0 min 7,9 km/h (2 Bft)
23.09.2009 09:52 19,9 C 15,0 C 0,0 UV-I 0,0 C 63 % 87 % 0 % 1026,2 hPa 0,0 l/m 1,4 km/h (1 Bft) 0 min 8,4 km/h (2 Bft)
23.09.2009 09:54 19,9 C 15,1 C 0,1 UV-I 0,0 C 63 % 87 % 0 % 1026,2 hPa 0,0 l/m 1,7 km/h (1 Bft) 0 min 3,1 km/h (1 Bft)
23.09.2009 09:56 19,9 C 15,1 C 0,1 UV-I 0,0 C 63 % 87 % 0 % 1026,7 hPa 0,0 l/m 1,4 km/h (1 Bft) 0 min 4,1 km/h (1 Bft)
23.09.2009 09:58 19,9 C 15,0 C 0,1 UV-I 0,0 C 63 % 87 % 0 % 1026,7 hPa 0,0 l/m 1,7 km/h (1 Bft) 0 min 4,8 km/h (1 Bft)
23.09.2009 10:00 19,9 C 15,0 C 0,1 UV-I 0,0 C 63 % 88 % 0 % 1026,7 hPa 0,0 l/m 1,7 km/h (1 Bft) 0 min 5,1 km/h (1 Bft)
23.09.2009 10:02 19,9 C 15,1 C 0,1 UV-I 0,0 C 63 % 88 % 0 % 1026,7 hPa 0,0 l/m 1,4 km/h (1 Bft) 0 min 6,0 km/h (2 Bft)
23.09.2009 10:04 19,9 C 15,0 C 0,1 UV-I 0,0 C 63 % 88 % 0 % 1026,7 hPa 0,0 l/m 1,4 km/h (1 Bft) 0 min 3,4 km/h (1 Bft)
23.09.2009 10:06 19,9 C 15,1 C 0,1 UV-I 0,0 C 64 % 88 % 0 % 1026,7 hPa 0,0 l/m 1,4 km/h (1 Bft) 0 min 0,0 km/h (0 Bft)
23.09.2009 10:08 19,9 C 15,0 C 0,2 UV-I 0,0 C 64 % 88 % 0 % 1026,7 hPa 0,0 l/m 1,7 km/h (1 Bft) 0 min 5,1 km/h (1 Bft)
23.09.2009 10:10 19,9 C 15,1 C 0,2 UV-I 0,0 C 64 % 88 % 0 % 1026,7 hPa 0,0 l/m 1,9 km/h (1 Bft) 0 min 4,6 km/h (1 Bft)
23.09.2009 10:12 19,9 C 15,0 C 0,2 UV-I 0,0 C 64 % 89 % 0 % 1026,7 hPa 0,0 l/m 2,2 km/h (1 Bft) 0 min 5,1 km/h (1 Bft)
23.09.2009 10:14 19,9 C 15,0 C 0,2 UV-I 0,0 C 64 % 89 % 0 % 1026,7 hPa 0,0 l/m 1,9 km/h (1 Bft) 0 min 2,4 km/h (1 Bft)
23.09.2009 10:16 19,9 C 15,0 C 0,2 UV-I 0,0 C 64 % 89 % 0 % 1026,7 hPa 0,0 l/m 1,9 km/h (1 Bft) 0 min 3,1 km/h (1 Bft)
23.09.2009 10:18 19,9 C 15,0 C 0,3 UV-I 0,0 C 64 % 89 % 0 % 1026,7 hPa 0,0 l/m 2,4 km/h (1 Bft) 0 min 6,7 km/h (2 Bft)
23.09.2009 10:20 19,9 C 15,0 C 0,3 UV-I 0,0 C 64 % 89 % 0 % 1026,7 hPa 0,0 l/m 2,4 km/h (1 Bft) 0 min 6,7 km/h (2 Bft)
23.09.2009 10:22 19,9 C 15,0 C 0,3 UV-I 0,0 C 64 % 89 % 0 % 1026,7 hPa 0,0 l/m 2,4 km/h (1 Bft) 0 min 3,4 km/h (1 Bft)
23.09.2009 10:24 19,9 C 15,1 C 0,6 UV-I 0,0 C 64 % 89 % 0 % 1026,7 hPa 0,0 l/m 2,6 km/h (1 Bft) 0 min 9,4 km/h (2 Bft)
23.09.2009 10:26 19,9 C 15,0 C 0,6 UV-I 0,0 C 64 % 89 % 0 % 1026,7 hPa 0,0 l/m 2,6 km/h (1 Bft) 0 min 0,0 km/h (0 Bft)
23.09.2009 10:30 19,9 C 15,1 C 0,6 UV-I 0,0 C 64 % 89 % 0 % 1026,7 hPa 0,0 l/m 1,9 km/h (1 Bft) 0 min 2,6 km/h (1 Bft)
23.09.2009 10:32 19,9 C 15,1 C 0,6 UV-I 0,0 C 64 % 89 % 0 % 1026,7 hPa 0,0 l/m 1,7 km/h (1 Bft) 0 min 0,0 km/h (0 Bft)
23.09.2009 10:34 19,9 C 15,2 C 1,0 UV-I 0,0 C 64 % 89 % 0 % 1026,7 hPa 0,0 l/m 1,9 km/h (1 Bft) 0 min 7,7 km/h (2 Bft)
23.09.2009 10:36 19,9 C 15,2 C 1,0 UV-I 0,0 C 64 % 89 % 0 % 1027,2 hPa 0,0 l/m 2,2 km/h (1 Bft) 0 min 8,2 km/h (2 Bft)
23.09.2009 10:38 19,9 C 15,2 C 1,1 UV-I 0,0 C 64 % 89 % 0 % 1027,2 hPa 0,0 l/m 2,4 km/h (1 Bft) 0 min 0,0 km/h (0 Bft)
23.09.2009 10:40 19,9 C 15,2 C 1,1 UV-I 0,0 C 64 % 89 % 0 % 1027,2 hPa 0,0 l/m 2,6 km/h (1 Bft) 0 min 0,0 km/h (0 Bft)
23.09.2009 10:42 19,9 C 15,2 C 1,1 UV-I 0,0 C 64 % 89 % 0 % 1027,2 hPa 0,0 l/m 2,6 km/h (1 Bft) 0 min 4,3 km/h (1 Bft)
23.09.2009 10:44 19,9 C 15,2 C 1,5 UV-I 0,1 C 64 % 89 % 3 % 1027,2 hPa 0,0 l/m 3,6 km/h (1 Bft) 0 min 4,8 km/h (1 Bft)
23.09.2009 10:46 20,0 C 15,3 C 1,5 UV-I 0,1 C 65 % 90 % 3 % 1027,2 hPa 0,0 l/m 3,1 km/h (1 Bft) 0 min 0,0 km/h (0 Bft)
23.09.2009 10:48 20,0 C 15,3 C 1,9 UV-I 0,3 C 65 % 90 % 9 % 1027,2 hPa 0,0 l/m 2,6 km/h (1 Bft) 0 min 5,1 km/h (1 Bft)
23.09.2009 10:50 20,0 C 15,5 C 1,9 UV-I 0,3 C 65 % 90 % 9 % 1027,2 hPa 0,0 l/m 2,9 km/h (1 Bft) 0 min 2,9 km/h (1 Bft)
23.09.2009 10:52 20,0 C 15,5 C 1,9 UV-I 0,4 C 65 % 89 % 11 % 1027,2 hPa 0,0 l/m 2,9 km/h (1 Bft) 0 min 4,1 km/h (1 Bft)
23.09.2009 10:54 20,0 C 15,5 C 1,5 UV-I 0,6 C 65 % 90 % 17 % 1027,2 hPa 0,0 l/m 2,2 km/h (1 Bft) 0 min 3,4 km/h (1 Bft)
23.09.2009 10:56 20,0 C 15,6 C 1,5 UV-I 0,6 C 65 % 90 % 17 % 1026,9 hPa 0,0 l/m 2,2 km/h (1 Bft) 0 min 5,1 km/h (1 Bft)
23.09.2009 10:58 20,0 C 15,7 C 1,3 UV-I 0,6 C 65 % 89 % 17 % 1026,9 hPa 0,0 l/m 2,6 km/h (1 Bft) 0 min 5,3 km/h (1 Bft)
23.09.2009 11:00 20,0 C 15,6 C 1,3 UV-I 0,8 C 65 % 89 % 23 % 1026,9 hPa 0,0 l/m 2,4 km/h (1 Bft) 0 min 0,0 km/h (0 Bft)
23.09.2009 11:02 20,0 C 15,7 C 1,3 UV-I 0,9 C 65 % 89 % 26 % 1026,9 hPa 0,0 l/m 2,6 km/h (1 Bft) 0 min 9,1 km/h (2 Bft)
23.09.2009 11:04 20,0 C 15,8 C 1,9 UV-I 0,9 C 65 % 89 % 26 % 1026,9 hPa 0,0 l/m 2,6 km/h (1 Bft) 0 min 2,9 km/h (1 Bft)
23.09.2009 11:06 20,0 C 15,8 C 1,9 UV-I 1,0 C 65 % 89 % 29 % 1026,9 hPa 0,0 l/m 2,9 km/h (1 Bft) 0 min 3,4 km/h (1 Bft)
23.09.2009 11:08 20,0 C 15,9 C 1,8 UV-I 1,0 C 65 % 89 % 29 % 1026,9 hPa 0,0 l/m 2,6 km/h (1 Bft) 0 min 11,5 km/h (2 Bft)
23.09.2009 11:10 20,1 C 15,9 C 1,8 UV-I 1,1 C 65 % 89 % 31 % 1026,9 hPa 0,0 l/m 2,9 km/h (1 Bft) 0 min 4,1 km/h (1 Bft)
23.09.2009 11:14 20,1 C 16,0 C 1,6 UV-I 1,2 C 65 % 88 % 34 % 1026,9 hPa 0,0 l/m 3,1 km/h (1 Bft) 0 min 2,9 km/h (1 Bft)
23.09.2009 11:18 20,1 C 16,0 C 1,7 UV-I 1,3 C 65 % 88 % 37 % 1027,1 hPa 0,0 l/m 4,1 km/h (1 Bft) 0 min 2,9 km/h (1 Bft)
23.09.2009 11:20 20,1 C 16,0 C 1,7 UV-I 1,3 C 65 % 88 % 37 % 1027,1 hPa 0,0 l/m 3,4 km/h (1 Bft) 0 min 0,0 km/h (0 Bft)
23.09.2009 11:22 20,2 C 16,1 C 1,7 UV-I 1,4 C 65 % 88 % 40 % 1027,1 hPa 0,0 l/m 2,9 km/h (1 Bft) 0 min 3,1 km/h (1 Bft)
23.09.2009 11:24 20,2 C 16,1 C 1,7 UV-I 1,6 C 65 % 88 % 46 % 1027,1 hPa 0,0 l/m 2,4 km/h (1 Bft) 0 min 2,4 km/h (1 Bft)
23.09.2009 11:26 20,2 C 16,2 C 1,7 UV-I 1,6 C 65 % 88 % 46 % 1027,1 hPa 0,0 l/m 2,2 km/h (1 Bft) 0 min 6,5 km/h (2 Bft)
23.09.2009 11:32 20,2 C 16,4 C 1,5 UV-I 1,4 C 65 % 87 % 40 % 1027,1 hPa 0,0 l/m 2,6 km/h (1 Bft) 0 min 8,4 km/h (2 Bft)
23.09.2009 11:34 20,3 C 16,4 C 1,4 UV-I 1,3 C 65 % 87 % 37 % 1027,1 hPa 0,0 l/m 3,4 km/h (1 Bft) 0 min 4,3 km/h (1 Bft)
23.09.2009 11:36 20,2 C 16,4 C 1,4 UV-I 1,2 C 65 % 87 % 34 % 1027,4 hPa 0,0 l/m 3,8 km/h (1 Bft) 0 min 5,8 km/h (2 Bft)
23.09.2009 11:38 20,3 C 16,5 C 1,4 UV-I 1,1 C 65 % 87 % 31 % 1027,4 hPa 0,0 l/m 3,8 km/h (1 Bft) 0 min 4,6 km/h (1 Bft)
23.09.2009 11:42 20,3 C 16,4 C 1,4 UV-I 1,2 C 65 % 87 % 34 % 1027,4 hPa 0,0 l/m 3,8 km/h (1 Bft) 0 min 9,6 km/h (2 Bft)
23.09.2009 11:44 20,3 C 16,4 C 1,3 UV-I 1,1 C 65 % 87 % 31 % 1027,4 hPa 0,0 l/m 4,1 km/h (1 Bft) 0 min 4,3 km/h (1 Bft)
23.09.2009 11:46 20,3 C 16,5 C 1,3 UV-I 1,0 C 65 % 87 % 29 % 1027,4 hPa 0,0 l/m 3,6 km/h (1 Bft) 0 min 2,9 km/h (1 Bft)
23.09.2009 11:48 20,2 C 16,5 C 1,7 UV-I 1,0 C 65 % 87 % 29 % 1027,4 hPa 0,0 l/m 3,6 km/h (1 Bft) 0 min 5,8 km/h (2 Bft)
23.09.2009 11:52 20,2 C 16,5 C 1,7 UV-I 1,0 C 65 % 87 % 29 % 1027,4 hPa 0,0 l/m 3,8 km/h (1 Bft) 0 min 4,1 km/h (1 Bft)
23.09.2009 11:54 20,2 C 16,7 C 1,3 UV-I 0,7 C 65 % 87 % 20 % 1027,4 hPa 0,0 l/m 3,8 km/h (1 Bft) 0 min 9,6 km/h (2 Bft)
23.09.2009 11:56 20,2 C 16,6 C 1,3 UV-I 0,5 C 65 % 87 % 14 % 1027,2 hPa 0,0 l/m 3,6 km/h (1 Bft) 0 min 5,1 km/h (1 Bft)
23.09.2009 11:58 20,4 C 16,7 C 1,7 UV-I 0,3 C 65 % 87 % 9 % 1027,2 hPa 0,0 l/m 3,8 km/h (1 Bft) 0 min 3,1 km/h (1 Bft)
23.09.2009 12:00 20,4 C 16,6 C 1,7 UV-I 0,3 C 65 % 87 % 9 % 1027,2 hPa 0,0 l/m 3,4 km/h (1 Bft) 0 min 10,6 km/h (2 Bft)
23.09.2009 12:02 20,4 C 16,7 C 1,7 UV-I 0,2 C 65 % 87 % 6 % 1027,2 hPa 0,0 l/m 3,1 km/h (1 Bft) 0 min 0,0 km/h (0 Bft)
23.09.2009 12:04 20,4 C 16,7 C 1,7 UV-I 0,2 C 65 % 87 % 6 % 1027,2 hPa 0,0 l/m 3,1 km/h (1 Bft) 0 min 0,0 km/h (0 Bft)
23.09.2009 12:06 20,4 C 16,7 C 1,7 UV-I 0,2 C 65 % 87 % 6 % 1027,2 hPa 0,0 l/m 1,7 km/h (1 Bft) 0 min 3,6 km/h (1 Bft)
23.09.2009 12:12 20,4 C 16,7 C 1,4 UV-I 0,0 C 65 % 87 % 0 % 1027,2 hPa 0,0 l/m 3,1 km/h (1 Bft) 0 min 9,1 km/h (2 Bft)
23.09.2009 12:14 20,4 C 16,7 C 1,4 UV-I 0,0 C 65 % 87 % 0 % 1027,2 hPa 0,0 l/m 3,4 km/h (1 Bft) 0 min 2,6 km/h (1 Bft)
23.09.2009 12:16 20,4 C 16,6 C 1,4 UV-I 0,0 C 65 % 87 % 0 % 1027,2 hPa 0,0 l/m 3,8 km/h (1 Bft) 0 min 6,0 km/h (2 Bft)
23.09.2009 12:20 20,4 C 16,7 C 0,9 UV-I 0,0 C 65 % 87 % 0 % 1027,2 hPa 0,0 l/m 3,4 km/h (1 Bft) 0 min 3,8 km/h (1 Bft)
23.09.2009 12:22 20,4 C 16,6 C 0,9 UV-I 0,0 C 65 % 87 % 0 % 1027,2 hPa 0,0 l/m 2,6 km/h (1 Bft) 0 min 5,8 km/h (2 Bft)
23.09.2009 12:26 20,4 C 16,7 C 0,8 UV-I 0,0 C 65 % 87 % 0 % 1027,2 hPa 0,0 l/m 2,6 km/h (1 Bft) 0 min 4,8 km/h (1 Bft)
23.09.2009 12:28 20,4 C 16,7 C 1,1 UV-I 0,0 C 65 % 87 % 0 % 1027,2 hPa 0,0 l/m 2,9 km/h (1 Bft) 0 min 4,6 km/h (1 Bft)
23.09.2009 12:30 20,4 C 16,6 C 1,1 UV-I 0,0 C 65 % 87 % 0 % 1027,2 hPa 0,0 l/m 3,1 km/h (1 Bft) 0 min 3,1 km/h (1 Bft)
23.09.2009 12:32 20,4 C 16,7 C 1,1 UV-I 0,0 C 65 % 87 % 0 % 1027,2 hPa 0,0 l/m 2,9 km/h (1 Bft) 0 min 0,0 km/h (0 Bft)
23.09.2009 12:34 20,4 C 16,7 C 1,2 UV-I 0,0 C 65 % 87 % 0 % 1027,2 hPa 0,0 l/m 2,9 km/h (1 Bft) 0 min 4,6 km/h (1 Bft)
23.09.2009 12:36 20,4 C 16,6 C 1,2 UV-I 0,1 C 65 % 87 % 3 % 1027,3 hPa 0,0 l/m 2,4 km/h (1 Bft) 0 min 0,0 km/h (0 Bft)
23.09.2009 12:38 20,4 C 16,7 C 1,6 UV-I 0,2 C 65 % 87 % 6 % 1027,3 hPa 0,0 l/m 2,4 km/h (1 Bft) 0 min 3,6 km/h (1 Bft)
23.09.2009 12:40 20,4 C 16,7 C 1,6 UV-I 0,4 C 65 % 87 % 11 % 1027,3 hPa 0,0 l/m 2,9 km/h (1 Bft) 0 min 11,1 km/h (2 Bft)
23.09.2009 12:42 20,5 C 16,7 C 1,6 UV-I 0,4 C 65 % 87 % 11 % 1027,3 hPa 0,0 l/m 3,1 km/h (1 Bft) 0 min 6,3 km/h (2 Bft)
23.09.2009 12:44 20,5 C 16,7 C 2,8 UV-I 0,7 C 65 % 87 % 20 % 1027,3 hPa 0,0 l/m 4,1 km/h (1 Bft) 0 min 5,8 km/h (2 Bft)
23.09.2009 12:46 20,5 C 16,7 C 2,8 UV-I 1,1 C 65 % 87 % 31 % 1027,3 hPa 0,0 l/m 4,6 km/h (1 Bft) 0 min 11,8 km/h (2 Bft)
23.09.2009 12:48 20,5 C 16,8 C 5,9 UV-I 1,4 C 65 % 87 % 40 % 1027,3 hPa 0,0 l/m 4,6 km/h (1 Bft) 0 min 0,0 km/h (0 Bft)
23.09.2009 12:50 20,5 C 16,9 C 5,9 UV-I 2,1 C 65 % 87 % 60 % 1027,3 hPa 0,0 l/m 4,8 km/h (1 Bft) 0 min 9,6 km/h (2 Bft)
23.09.2009 12:52 20,5 C 17,1 C 5,9 UV-I 2,3 C 65 % 86 % 66 % 1027,3 hPa 0,0 l/m 4,6 km/h (1 Bft) 0 min 5,3 km/h (1 Bft)
23.09.2009 12:54 20,5 C 17,1 C 3,5 UV-I 2,3 C 65 % 86 % 66 % 1027,3 hPa 0,0 l/m 4,3 km/h (1 Bft) 0 min 4,1 km/h (1 Bft)
23.09.2009 12:56 20,6 C 17,2 C 3,5 UV-I 2,3 C 65 % 86 % 66 % 1027,5 hPa 0,0 l/m 4,3 km/h (1 Bft) 0 min 12,8 km/h (3 Bft)
23.09.2009 13:04 20,6 C 17,3 C 3,6 UV-I 2,1 C 65 % 86 % 60 % 1027,5 hPa 0,0 l/m 4,1 km/h (1 Bft) 0 min 7,2 km/h (2 Bft)
23.09.2009 13:06 20,6 C 17,4 C 3,6 UV-I 2,3 C 65 % 86 % 66 % 1027,5 hPa 0,0 l/m 3,8 km/h (1 Bft) 0 min 5,1 km/h (1 Bft)
23.09.2009 13:08 20,6 C 17,4 C 3,2 UV-I 2,4 C 65 % 85 % 69 % 1027,5 hPa 0,0 l/m 4,3 km/h (1 Bft) 0 min 10,6 km/h (2 Bft)
23.09.2009 13:10 20,7 C 17,4 C 3,2 UV-I 2,5 C 65 % 85 % 71 % 1027,5 hPa 0,0 l/m 4,6 km/h (1 Bft) 0 min 5,8 km/h (2 Bft)
23.09.2009 13:14 20,7 C 17,6 C 3,2 UV-I 2,1 C 65 % 85 % 60 % 1027,5 hPa 0,0 l/m 4,3 km/h (1 Bft) 0 min 7,2 km/h (2 Bft)
23.09.2009 13:16 20,7 C 17,7 C 3,2 UV-I 2,1 C 65 % 85 % 60 % 1027,4 hPa 0,0 l/m 4,3 km/h (1 Bft) 0 min 4,6 km/h (1 Bft)
23.09.2009 13:18 20,7 C 17,7 C 4,6 UV-I 2,2 C 65 % 84 % 63 % 1027,4 hPa 0,0 l/m 4,6 km/h (1 Bft) 0 min 7,2 km/h (2 Bft)
23.09.2009 13:20 20,8 C 17,7 C 4,6 UV-I 2,5 C 65 % 85 % 71 % 1027,4 hPa 0,0 l/m 3,8 km/h (1 Bft) 0 min 4,3 km/h (1 Bft)
23.09.2009 13:22 20,8 C 17,9 C 4,6 UV-I 2,8 C 65 % 84 % 80 % 1027,4 hPa 0,0 l/m 4,3 km/h (1 Bft) 0 min 7,0 km/h (2 Bft)
23.09.2009 13:26 20,8 C 18,1 C 8,1 UV-I 3,8 C 65 % 84 % 100 % 1027,4 hPa 0,0 l/m 4,3 km/h (1 Bft) 2 min 8,7 km/h (2 Bft)
23.09.2009 13:28 20,9 C 18,3 C 10,1 UV-I 4,7 C 65 % 84 % 100 % 1027,4 hPa 0,0 l/m 4,3 km/h (1 Bft) 2 min 6,3 km/h (2 Bft)
23.09.2009 13:30 20,9 C 18,5 C 10,1 UV-I 5,2 C 65 % 84 % 100 % 1027,4 hPa 0,0 l/m 4,3 km/h (1 Bft) 2 min 18,8 km/h (3 Bft)
23.09.2009 13:34 21,0 C 18,7 C 7,1 UV-I 5,4 C 65 % 82 % 100 % 1027,4 hPa 0,0 l/m 4,3 km/h (1 Bft) 2 min 4,6 km/h (1 Bft)
23.09.2009 13:36 21,1 C 18,6 C 7,1 UV-I 5,3 C 65 % 82 % 100 % 1027,3 hPa 0,0 l/m 4,6 km/h (1 Bft) 2 min 4,6 km/h (1 Bft)
23.09.2009 13:38 21,1 C 18,7 C 4,6 UV-I 4,9 C 65 % 81 % 100 % 1027,3 hPa 0,0 l/m 4,6 km/h (1 Bft) 2 min 6,7 km/h (2 Bft)
23.09.2009 13:40 21,2 C 18,8 C 4,6 UV-I 4,6 C 65 % 81 % 100 % 1027,3 hPa 0,0 l/m 4,3 km/h (1 Bft) 2 min 6,0 km/h (2 Bft)
23.09.2009 13:48 21,3 C 19,0 C 5,3 UV-I 3,9 C 64 % 80 % 100 % 1027,3 hPa 0,0 l/m 4,3 km/h (1 Bft) 2 min 9,6 km/h (2 Bft)
23.09.2009 13:50 21,2 C 19,1 C 5,3 UV-I 3,8 C 64 % 80 % 100 % 1027,3 hPa 0,0 l/m 4,6 km/h (1 Bft) 2 min 10,6 km/h (2 Bft)
23.09.2009 13:52 21,2 C 19,1 C 5,3 UV-I 3,7 C 64 % 80 % 100 % 1027,3 hPa 0,0 l/m 4,6 km/h (1 Bft) 2 min 6,7 km/h (2 Bft)
23.09.2009 13:58 21,4 C 19,1 C 3,5 UV-I 3,1 C 64 % 80 % 89 % 1027,4 hPa 0,0 l/m 4,8 km/h (1 Bft) 2 min 5,8 km/h (2 Bft)
23.09.2009 14:04 21,5 C 19,3 C 2,5 UV-I 2,7 C 64 % 79 % 77 % 1027,4 hPa 0,0 l/m 3,8 km/h (1 Bft) 0 min 4,6 km/h (1 Bft)
23.09.2009 14:08 21,6 C 19,3 C 2,3 UV-I 2,2 C 63 % 78 % 63 % 1027,4 hPa 0,0 l/m 3,4 km/h (1 Bft) 0 min 9,6 km/h (2 Bft)
23.09.2009 14:10 21,6 C 19,2 C 2,3 UV-I 2,1 C 63 % 78 % 60 % 1027,4 hPa 0,0 l/m 3,8 km/h (1 Bft) 0 min 7,0 km/h (2 Bft)
23.09.2009 14:12 21,6 C 19,2 C 2,3 UV-I 2,1 C 63 % 78 % 60 % 1027,4 hPa 0,0 l/m 3,8 km/h (1 Bft) 0 min 7,0 km/h (2 Bft)
23.09.2009 14:14 21,6 C 19,2 C 2,0 UV-I 1,9 C 63 % 78 % 54 % 1027,4 hPa 0,0 l/m 3,4 km/h (1 Bft) 0 min 7,0 km/h (2 Bft)
23.09.2009 14:16 21,6 C 19,3 C 2,0 UV-I 1,7 C 63 % 78 % 49 % 1027,1 hPa 0,0 l/m 3,8 km/h (1 Bft) 0 min 7,9 km/h (2 Bft)
23.09.2009 14:18 21,6 C 19,3 C 1,2 UV-I 1,4 C 63 % 78 % 40 % 1027,1 hPa 0,0 l/m 3,4 km/h (1 Bft) 0 min 0,0 km/h (0 Bft)
23.09.2009 14:20 21,6 C 19,3 C 1,2 UV-I 1,3 C 63 % 78 % 37 % 1027,1 hPa 0,0 l/m 3,4 km/h (1 Bft) 0 min 11,8 km/h (2 Bft)
23.09.2009 14:22 21,6 C 19,3 C 1,2 UV-I 1,1 C 63 % 78 % 31 % 1027,1 hPa 0,0 l/m 3,1 km/h (1 Bft) 0 min 5,8 km/h (2 Bft)
23.09.2009 14:26 21,6 C 19,5 C 1,0 UV-I 0,7 C 63 % 78 % 20 % 1027,1 hPa 0,0 l/m 2,6 km/h (1 Bft) 0 min 4,8 km/h (1 Bft)
23.09.2009 14:28 21,6 C 19,4 C 1,0 UV-I 0,7 C 63 % 78 % 20 % 1027,1 hPa 0,0 l/m 1,9 km/h (1 Bft) 0 min 3,4 km/h (1 Bft)
23.09.2009 14:30 21,6 C 19,5 C 1,0 UV-I 0,6 C 63 % 78 % 17 % 1027,1 hPa 0,0 l/m 2,6 km/h (1 Bft) 0 min 4,6 km/h (1 Bft)
23.09.2009 14:32 21,6 C 19,4 C 1,0 UV-I 0,6 C 63 % 78 % 17 % 1027,1 hPa 0,0 l/m 1,9 km/h (1 Bft) 0 min 4,3 km/h (1 Bft)
23.09.2009 14:34 21,6 C 19,3 C 1,2 UV-I 0,6 C 63 % 78 % 17 % 1027,1 hPa 0,0 l/m 1,9 km/h (1 Bft) 0 min 7,0 km/h (2 Bft)
23.09.2009 14:36 21,6 C 19,4 C 1,2 UV-I 0,5 C 63 % 78 % 14 % 1026,9 hPa 0,0 l/m 1,7 km/h (1 Bft) 0 min 0,0 km/h (0 Bft)
23.09.2009 14:38 21,6 C 19,5 C 1,7 UV-I 0,4 C 63 % 78 % 11 % 1026,9 hPa 0,0 l/m 1,9 km/h (1 Bft) 0 min 5,5 km/h (1 Bft)
23.09.2009 14:40 21,6 C 19,5 C 1,7 UV-I 0,6 C 63 % 77 % 17 % 1026,9 hPa 0,0 l/m 2,2 km/h (1 Bft) 0 min 4,1 km/h (1 Bft)
23.09.2009 14:42 21,6 C 19,4 C 1,7 UV-I 0,8 C 63 % 77 % 23 % 1026,9 hPa 0,0 l/m 2,4 km/h (1 Bft) 0 min 11,3 km/h (2 Bft)
23.09.2009 14:44 21,6 C 19,4 C 2,0 UV-I 0,8 C 63 % 77 % 23 % 1026,9 hPa 0,0 l/m 2,4 km/h (1 Bft) 0 min 0,0 km/h (0 Bft)
23.09.2009 14:46 21,6 C 19,5 C 2,0 UV-I 0,8 C 63 % 77 % 23 % 1026,9 hPa 0,0 l/m 2,4 km/h (1 Bft) 0 min 4,8 km/h (1 Bft)
23.09.2009 14:48 21,6 C 19,5 C 2,1 UV-I 0,9 C 63 % 76 % 26 % 1026,9 hPa 0,0 l/m 2,9 km/h (1 Bft) 0 min 4,8 km/h (1 Bft)
23.09.2009 14:50 21,6 C 19,5 C 2,1 UV-I 1,0 C 63 % 77 % 29 % 1026,9 hPa 0,0 l/m 3,1 km/h (1 Bft) 0 min 10,3 km/h (2 Bft)
23.09.2009 14:52 21,6 C 19,7 C 2,1 UV-I 0,9 C 63 % 77 % 26 % 1026,9 hPa 0,0 l/m 3,1 km/h (1 Bft) 0 min 0,0 km/h (0 Bft)
23.09.2009 14:54 21,6 C 19,6 C 2,0 UV-I 1,1 C 63 % 77 % 31 % 1026,9 hPa 0,0 l/m 2,6 km/h (1 Bft) 0 min 4,3 km/h (1 Bft)
23.09.2009 14:56 21,6 C 19,6 C 2,0 UV-I 1,2 C 63 % 77 % 34 % 1026,8 hPa 0,0 l/m 2,9 km/h (1 Bft) 0 min 5,8 km/h (2 Bft)
23.09.2009 14:58 21,6 C 19,7 C 2,0 UV-I 1,3 C 63 % 76 % 37 % 1026,8 hPa 0,0 l/m 2,6 km/h (1 Bft) 0 min 4,1 km/h (1 Bft)
23.09.2009 15:00 21,6 C 19,6 C 2,0 UV-I 1,4 C 63 % 76 % 40 % 1026,8 hPa 0,0 l/m 2,6 km/h (1 Bft) 0 min 4,6 km/h (1 Bft)
23.09.2009 15:02 21,6 C 19,7 C 2,0 UV-I 1,3 C 63 % 76 % 37 % 1026,8 hPa 0,0 l/m 2,2 km/h (1 Bft) 0 min 2,9 km/h (1 Bft)
23.09.2009 15:04 21,6 C 19,8 C 1,6 UV-I 1,2 C 63 % 76 % 34 % 1026,8 hPa 0,0 l/m 2,2 km/h (1 Bft) 0 min 0,0 km/h (0 Bft)
23.09.2009 15:06 21,7 C 19,9 C 1,6 UV-I 1,1 C 63 % 76 % 31 % 1026,8 hPa 0,0 l/m 1,9 km/h (1 Bft) 0 min 0,0 km/h (0 Bft)
23.09.2009 15:08 21,6 C 19,9 C 1,1 UV-I 1,1 C 63 % 76 % 31 % 1026,8 hPa 0,0 l/m 1,7 km/h (1 Bft) 0 min 5,8 km/h (2 Bft)
23.09.2009 15:10 21,6 C 19,8 C 1,1 UV-I 1,2 C 62 % 76 % 34 % 1026,8 hPa 0,0 l/m 1,4 km/h (1 Bft) 0 min 4,3 km/h (1 Bft)
23.09.2009 15:12 21,7 C 19,9 C 1,1 UV-I 1,0 C 62 % 76 % 29 % 1026,8 hPa 0,0 l/m 1,9 km/h (1 Bft) 0 min 7,7 km/h (2 Bft)
23.09.2009 15:14 21,6 C 19,9 C 1,2 UV-I 0,9 C 62 % 76 % 26 % 1026,8 hPa 0,0 l/m 1,9 km/h (1 Bft) 0 min 2,6 km/h (1 Bft)
23.09.2009 15:16 21,6 C 20,0 C 1,2 UV-I 0,8 C 62 % 75 % 23 % 1026,4 hPa 0,0 l/m 2,2 km/h (1 Bft) 0 min 5,1 km/h (1 Bft)
23.09.2009 15:18 21,7 C 19,9 C 1,1 UV-I 0,9 C 62 % 75 % 26 % 1026,4 hPa 0,0 l/m 2,4 km/h (1 Bft) 0 min 8,2 km/h (2 Bft)
23.09.2009 15:20 21,7 C 19,9 C 1,1 UV-I 0,8 C 62 % 75 % 23 % 1026,4 hPa 0,0 l/m 2,6 km/h (1 Bft) 0 min 0,0 km/h (0 Bft)
23.09.2009 15:22 21,7 C 19,9 C 1,1 UV-I 0,7 C 62 % 75 % 20 % 1026,4 hPa 0,0 l/m 2,4 km/h (1 Bft) 0 min 0,0 km/h (0 Bft)
23.09.2009 15:24 21,6 C 19,9 C 0,5 UV-I 0,7 C 62 % 75 % 20 % 1026,4 hPa 0,0 l/m 2,6 km/h (1 Bft) 0 min 5,8 km/h (2 Bft)
23.09.2009 15:26 21,6 C 19,9 C 0,5 UV-I 0,5 C 62 % 74 % 14 % 1026,4 hPa 0,0 l/m 2,9 km/h (1 Bft) 0 min 5,5 km/h (1 Bft)
23.09.2009 15:28 21,6 C 19,8 C 0,5 UV-I 0,5 C 62 % 74 % 14 % 1026,4 hPa 0,0 l/m 2,9 km/h (1 Bft) 0 min 6,7 km/h (2 Bft)
23.09.2009 15:30 21,6 C 19,9 C 0,5 UV-I 0,3 C 62 % 74 % 9 % 1026,4 hPa 0,0 l/m 2,9 km/h (1 Bft) 0 min 7,2 km/h (2 Bft)
23.09.2009 15:32 21,6 C 19,9 C 0,5 UV-I 0,2 C 62 % 74 % 6 % 1026,4 hPa 0,0 l/m 3,1 km/h (1 Bft) 0 min 4,1 km/h (1 Bft)
23.09.2009 15:34 21,6 C 19,8 C 0,2 UV-I 0,2 C 62 % 74 % 6 % 1026,4 hPa 0,0 l/m 3,1 km/h (1 Bft) 0 min 4,8 km/h (1 Bft)
23.09.2009 15:36 21,6 C 19,9 C 0,2 UV-I 0,0 C 62 % 74 % 0 % 1026,6 hPa 0,0 l/m 3,1 km/h (1 Bft) 0 min 7,2 km/h (2 Bft)
23.09.2009 15:38 21,6 C 19,9 C 0,4 UV-I 0,0 C 62 % 74 % 0 % 1026,6 hPa 0,0 l/m 3,4 km/h (1 Bft) 0 min 5,1 km/h (1 Bft)
23.09.2009 15:40 21,6 C 19,8 C 0,4 UV-I 0,0 C 62 % 74 % 0 % 1026,6 hPa 0,0 l/m 3,4 km/h (1 Bft) 0 min 0,0 km/h (0 Bft)
23.09.2009 15:42 21,6 C 19,7 C 0,4 UV-I 0,0 C 62 % 74 % 0 % 1026,6 hPa 0,0 l/m 3,4 km/h (1 Bft) 0 min 3,4 km/h (1 Bft)
23.09.2009 15:44 21,6 C 19,7 C 0,1 UV-I 0,0 C 62 % 74 % 0 % 1026,6 hPa 0,0 l/m 3,1 km/h (1 Bft) 0 min 2,4 km/h (1 Bft)
23.09.2009 15:46 21,6 C 19,7 C 0,1 UV-I 0,0 C 62 % 75 % 0 % 1026,6 hPa 0,0 l/m 3,1 km/h (1 Bft) 0 min 5,1 km/h (1 Bft)
23.09.2009 15:48 21,6 C 19,7 C 0,1 UV-I 0,0 C 62 % 75 % 0 % 1026,6 hPa 0,0 l/m 2,4 km/h (1 Bft) 0 min 2,9 km/h (1 Bft)
23.09.2009 15:50 21,6 C 19,7 C 0,1 UV-I 0,0 C 62 % 75 % 0 % 1026,6 hPa 0,0 l/m 1,9 km/h (1 Bft) 0 min 4,6 km/h (1 Bft)
23.09.2009 15:52 21,6 C 19,7 C 0,1 UV-I 0,0 C 62 % 75 % 0 % 1026,6 hPa 0,0 l/m 1,9 km/h (1 Bft) 0 min 5,1 km/h (1 Bft)
23.09.2009 15:54 21,6 C 19,6 C 0,2 UV-I 0,0 C 62 % 75 % 0 % 1026,6 hPa 0,0 l/m 1,9 km/h (1 Bft) 0 min 3,4 km/h (1 Bft)
23.09.2009 15:56 21,6 C 19,5 C 0,2 UV-I 0,0 C 62 % 75 % 0 % 1026,2 hPa 0,0 l/m 2,4 km/h (1 Bft) 0 min 2,6 km/h (1 Bft)
23.09.2009 15:58 21,6 C 19,5 C 0,0 UV-I 0,0 C 62 % 75 % 0 % 1026,2 hPa 0,0 l/m 2,6 km/h (1 Bft) 0 min 9,9 km/h (2 Bft)
23.09.2009 16:00 21,6 C 19,5 C 0,0 UV-I 0,0 C 62 % 75 % 0 % 1026,2 hPa 0,0 l/m 3,1 km/h (1 Bft) 0 min 5,1 km/h (1 Bft)
23.09.2009 16:02 21,5 C 19,5 C 0,0 UV-I 0,0 C 62 % 75 % 0 % 1026,2 hPa 0,0 l/m 3,1 km/h (1 Bft) 0 min 2,9 km/h (1 Bft)
23.09.2009 16:04 21,5 C 19,5 C 0,0 UV-I 0,0 C 62 % 76 % 0 % 1026,2 hPa 0,0 l/m 3,4 km/h (1 Bft) 0 min 6,7 km/h (2 Bft)
23.09.2009 16:06 21,5 C 19,4 C 0,0 UV-I 0,0 C 62 % 76 % 0 % 1026,2 hPa 0,0 l/m 3,4 km/h (1 Bft) 0 min 2,9 km/h (1 Bft)
23.09.2009 16:08 21,5 C 19,4 C 0,0 UV-I 0,0 C 62 % 76 % 0 % 1026,2 hPa 0,0 l/m 3,4 km/h (1 Bft) 0 min 3,1 km/h (1 Bft)
23.09.2009 16:10 21,5 C 19,5 C 0,0 UV-I 0,0 C 63 % 76 % 0 % 1026,2 hPa 0,0 l/m 2,6 km/h (1 Bft) 0 min 3,1 km/h (1 Bft)
23.09.2009 16:12 21,5 C 19,4 C 0,0 UV-I 0,0 C 63 % 76 % 0 % 1026,2 hPa 0,0 l/m 2,9 km/h (1 Bft) 0 min 4,6 km/h (1 Bft)
23.09.2009 16:14 21,5 C 19,3 C 0,0 UV-I 0,0 C 63 % 76 % 0 % 1026,2 hPa 0,0 l/m 2,6 km/h (1 Bft) 0 min 0,0 km/h (0 Bft)
23.09.2009 16:16 21,5 C 19,3 C 0,0 UV-I 0,0 C 63 % 76 % 0 % 1026,2 hPa 0,0 l/m 2,2 km/h (1 Bft) 0 min 2,6 km/h (1 Bft)
23.09.2009 16:18 21,5 C 19,2 C 0,0 UV-I 0,0 C 63 % 76 % 0 % 1026,2 hPa 0,0 l/m 2,2 km/h (1 Bft) 0 min 4,1 km/h (1 Bft)
23.09.2009 16:20 21,4 C 19,3 C 0,0 UV-I 0,0 C 63 % 76 % 0 % 1026,2 hPa 0,0 l/m 1,7 km/h (1 Bft) 0 min 3,4 km/h (1 Bft)
23.09.2009 16:22 21,4 C 19,3 C 0,0 UV-I 0,0 C 63 % 77 % 0 % 1026,2 hPa 0,0 l/m 1,7 km/h (1 Bft) 0 min 0,0 km/h (0 Bft)
23.09.2009 16:24 21,4 C 19,3 C 0,0 UV-I 0,0 C 63 % 77 % 0 % 1026,2 hPa 0,0 l/m 1,0 km/h (0 Bft) 0 min 2,6 km/h (1 Bft)
23.09.2009 16:26 21,4 C 19,3 C 0,0 UV-I 0,0 C 63 % 77 % 0 % 1026,2 hPa 0,0 l/m 1,0 km/h (0 Bft) 0 min 0,0 km/h (0 Bft)
23.09.2009 16:28 21,4 C 19,2 C 0,0 UV-I 0,0 C 63 % 77 % 0 % 1026,2 hPa 0,0 l/m 0,7 km/h (0 Bft) 0 min 0,0 km/h (0 Bft)
23.09.2009 16:30 21,4 C 19,1 C 0,0 UV-I 0,0 C 63 % 77 % 0 % 1026,2 hPa 0,0 l/m 0,2 km/h (0 Bft) 0 min 0,0 km/h (0 Bft)
23.09.2009 16:34 21,4 C 19,1 C 0,0 UV-I 0,0 C 63 % 77 % 0 % 1026,2 hPa 0,0 l/m 0,5 km/h (0 Bft) 0 min 3,4 km/h (1 Bft)
23.09.2009 16:36 21,4 C 19,1 C 0,0 UV-I 0,0 C 63 % 78 % 0 % 1026,1 hPa 0,0 l/m 0,5 km/h (0 Bft) 0 min 7,7 km/h (2 Bft)
23.09.2009 16:38 21,4 C 19,1 C 0,0 UV-I 0,0 C 63 % 77 % 0 % 1026,1 hPa 0,0 l/m 1,2 km/h (1 Bft) 0 min 4,8 km/h (1 Bft)
23.09.2009 16:40 21,4 C 19,1 C 0,0 UV-I 0,0 C 63 % 77 % 0 % 1026,1 hPa 0,0 l/m 1,7 km/h (1 Bft) 0 min 4,8 km/h (1 Bft)
23.09.2009 16:42 21,4 C 19,0 C 0,0 UV-I 0,0 C 63 % 77 % 0 % 1026,1 hPa 0,0 l/m 2,4 km/h (1 Bft) 0 min 6,3 km/h (2 Bft)
23.09.2009 16:44 21,4 C 19,0 C 0,0 UV-I 0,0 C 63 % 77 % 0 % 1026,1 hPa 0,0 l/m 2,4 km/h (1 Bft) 0 min 0,0 km/h (0 Bft)
23.09.2009 16:46 21,4 C 19,1 C 0,0 UV-I 0,0 C 63 % 77 % 0 % 1026,1 hPa 0,0 l/m 2,6 km/h (1 Bft) 0 min 0,0 km/h (0 Bft)
23.09.2009 16:48 21,4 C 19,0 C 0,0 UV-I 0,0 C 63 % 78 % 0 % 1026,1 hPa 0,0 l/m 2,6 km/h (1 Bft) 0 min 2,9 km/h (1 Bft)
23.09.2009 16:50 21,4 C 19,0 C 0,0 UV-I 0,0 C 63 % 77 % 0 % 1026,1 hPa 0,0 l/m 2,6 km/h (1 Bft) 0 min 7,2 km/h (2 Bft)
23.09.2009 16:52 21,4 C 18,9 C 0,0 UV-I 0,0 C 63 % 78 % 0 % 1026,1 hPa 0,0 l/m 2,9 km/h (1 Bft) 0 min 2,6 km/h (1 Bft)
23.09.2009 16:54 21,4 C 18,8 C 0,0 UV-I 0,0 C 63 % 78 % 0 % 1026,1 hPa 0,0 l/m 2,4 km/h (1 Bft) 0 min 2,6 km/h (1 Bft)
23.09.2009 16:56 21,2 C 18,8 C 0,0 UV-I 0,0 C 63 % 79 % 0 % 1026,1 hPa 0,0 l/m 2,4 km/h (1 Bft) 0 min 0,0 km/h (0 Bft)
23.09.2009 16:58 21,2 C 18,8 C 0,0 UV-I 0,0 C 63 % 79 % 0 % 1026,1 hPa 0,0 l/m 1,9 km/h (1 Bft) 0 min 3,6 km/h (1 Bft)
23.09.2009 17:00 21,2 C 18,8 C 0,0 UV-I 0,0 C 64 % 80 % 0 % 1026,1 hPa 0,0 l/m 1,4 km/h (1 Bft) 0 min 0,0 km/h (0 Bft)
23.09.2009 17:02 21,2 C 18,8 C 0,0 UV-I 0,0 C 64 % 80 % 0 % 1026,1 hPa 0,0 l/m 0,7 km/h (0 Bft) 0 min 0,0 km/h (0 Bft)
23.09.2009 17:06 21,2 C 18,7 C 0,0 UV-I 0,0 C 64 % 80 % 0 % 1026,1 hPa 0,0 l/m 0,7 km/h (0 Bft) 0 min 3,4 km/h (1 Bft)
23.09.2009 17:08 21,2 C 18,7 C 0,0 UV-I 0,0 C 64 % 81 % 0 % 1026,1 hPa 0,0 l/m 1,2 km/h (1 Bft) 0 min 4,6 km/h (1 Bft)
23.09.2009 17:10 21,2 C 18,5 C 0,0 UV-I 0,0 C 64 % 81 % 0 % 1026,1 hPa 0,0 l/m 1,2 km/h (1 Bft) 0 min 0,0 km/h (0 Bft)
23.09.2009 17:12 21,2 C 18,4 C 0,0 UV-I 0,0 C 64 % 81 % 0 % 1026,1 hPa 0,0 l/m 1,2 km/h (1 Bft) 0 min 0,0 km/h (0 Bft)
23.09.2009 17:14 21,2 C 18,4 C 0,0 UV-I 0,0 C 64 % 82 % 0 % 1026,1 hPa 0,0 l/m 1,7 km/h (1 Bft) 0 min 6,3 km/h (2 Bft)
23.09.2009 17:16 21,2 C 18,5 C 0,0 UV-I 0,0 C 64 % 82 % 0 % 1026,2 hPa 0,0 l/m 1,7 km/h (1 Bft) 0 min 5,8 km/h (2 Bft)
23.09.2009 17:18 21,3 C 18,4 C 0,0 UV-I 0,0 C 64 % 83 % 0 % 1026,2 hPa 0,0 l/m 2,2 km/h (1 Bft) 0 min 0,0 km/h (0 Bft)
23.09.2009 17:20 21,2 C 18,3 C 0,0 UV-I 0,0 C 64 % 83 % 0 % 1026,2 hPa 0,0 l/m 1,4 km/h (1 Bft) 0 min 0,0 km/h (0 Bft)
23.09.2009 17:22 21,2 C 18,2 C 0,0 UV-I 0,0 C 64 % 84 % 0 % 1026,2 hPa 0,0 l/m 1,4 km/h (1 Bft) 0 min 3,4 km/h (1 Bft)
23.09.2009 17:24 21,3 C 18,3 C 0,0 UV-I 0,0 C 64 % 84 % 0 % 1026,2 hPa 0,0 l/m 1,7 km/h (1 Bft) 0 min 0,0 km/h (0 Bft)
23.09.2009 17:26 21,2 C 18,1 C 0,0 UV-I 0,0 C 64 % 84 % 0 % 1026,2 hPa 0,0 l/m 1,0 km/h (0 Bft) 0 min 0,0 km/h (0 Bft)
23.09.2009 17:28 21,3 C 18,1 C 0,0 UV-I 0,0 C 64 % 84 % 0 % 1026,2 hPa 0,0 l/m 0,5 km/h (0 Bft) 0 min 0,0 km/h (0 Bft)
23.09.2009 17:30 21,3 C 18,0 C 0,0 UV-I 0,0 C 65 % 84 % 0 % 1026,2 hPa 0,0 l/m 0,2 km/h (0 Bft) 0 min 0,0 km/h (0 Bft)
23.09.2009 17:32 21,3 C 18,1 C 0,0 UV-I 0,0 C 65 % 84 % 0 % 1026,2 hPa 0,0 l/m 0,5 km/h (0 Bft) 0 min 0,0 km/h (0 Bft)
23.09.2009 17:34 21,2 C 18,0 C 0,0 UV-I 0,0 C 65 % 85 % 0 % 1026,2 hPa 0,0 l/m 0,2 km/h (0 Bft) 0 min 0,0 km/h (0 Bft)
23.09.2009 17:36 21,3 C 17,9 C 0,0 UV-I 0,0 C 65 % 85 % 0 % 1026,3 hPa 0,0 l/m 0,0 km/h (0 Bft) 0 min 0,0 km/h (0 Bft)
23.09.2009 17:38 21,3 C 17,9 C 0,0 UV-I 0,0 C 65 % 85 % 0 % 1026,3 hPa 0,0 l/m 0,0 km/h (0 Bft) 0 min 0,0 km/h (0 Bft)
23.09.2009 17:40 21,3 C 17,9 C 0,0 UV-I 0,0 C 65 % 85 % 0 % 1026,3 hPa 0,0 l/m 0,0 km/h (0 Bft) 0 min 0,0 km/h (0 Bft)
23.09.2009 17:42 21,3 C 17,9 C 0,0 UV-I 0,0 C 65 % 85 % 0 % 1026,3 hPa 0,0 l/m 0,2 km/h (0 Bft) 0 min 0,0 km/h (0 Bft)
23.09.2009 17:44 21,3 C 17,9 C 0,0 UV-I 0,0 C 65 % 86 % 0 % 1026,3 hPa 0,0 l/m 0,0 km/h (0 Bft) 0 min 0,0 km/h (0 Bft)
23.09.2009 17:46 21,2 C 17,8 C 0,0 UV-I 0,0 C 65 % 86 % 0 % 1026,3 hPa 0,0 l/m 0,0 km/h (0 Bft) 0 min 0,0 km/h (0 Bft)
23.09.2009 17:48 21,3 C 17,7 C 0,0 UV-I 0,0 C 65 % 86 % 0 % 1026,3 hPa 0,0 l/m 0,0 km/h (0 Bft) 0 min 0,0 km/h (0 Bft)
23.09.2009 17:50 21,3 C 17,7 C 0,0 UV-I 0,0 C 65 % 87 % 0 % 1026,3 hPa 0,0 l/m 0,0 km/h (0 Bft) 0 min 0,0 km/h (0 Bft)
23.09.2009 17:52 21,3 C 17,7 C 0,0 UV-I 0,0 C 65 % 87 % 0 % 1026,3 hPa 0,0 l/m 0,0 km/h (0 Bft) 0 min 0,0 km/h (0 Bft)
23.09.2009 17:54 21,3 C 17,7 C 0,0 UV-I 0,0 C 65 % 87 % 0 % 1026,3 hPa 0,0 l/m 0,0 km/h (0 Bft) 0 min 0,0 km/h (0 Bft)
23.09.2009 17:56 21,3 C 17,6 C 0,0 UV-I 0,0 C 65 % 87 % 0 % 1025,9 hPa 0,0 l/m 0,0 km/h (0 Bft) 0 min 0,0 km/h (0 Bft)
23.09.2009 17:58 21,3 C 17,6 C 0,0 UV-I 0,0 C 65 % 86 % 0 % 1025,9 hPa 0,0 l/m 0,0 km/h (0 Bft) 0 min 0,0 km/h (0 Bft)
23.09.2009 18:02 21,2 C 17,7 C 0,0 UV-I 0,0 C 65 % 87 % 0 % 1025,9 hPa 0,0 l/m 0,0 km/h (0 Bft) 0 min 0,0 km/h (0 Bft)
23.09.2009 18:04 21,3 C 17,6 C 0,0 UV-I 0,0 C 65 % 87 % 0 % 1025,9 hPa 0,0 l/m 0,0 km/h (0 Bft) 0 min 0,0 km/h (0 Bft)
23.09.2009 18:06 21,3 C 17,5 C 0,0 UV-I 0,0 C 66 % 87 % 0 % 1025,9 hPa 0,0 l/m 0,0 km/h (0 Bft) 0 min 0,0 km/h (0 Bft)
23.09.2009 18:08 21,2 C 17,5 C 0,0 UV-I 0,0 C 65 % 87 % 0 % 1025,9 hPa 0,0 l/m 0,0 km/h (0 Bft) 0 min 0,0 km/h (0 Bft)
23.09.2009 18:10 21,3 C 17,5 C 0,0 UV-I 0,0 C 65 % 87 % 0 % 1025,9 hPa 0,0 l/m 0,0 km/h (0 Bft) 0 min 0,0 km/h (0 Bft)
23.09.2009 18:14 21,2 C 17,4 C 0,0 UV-I 0,0 C 66 % 87 % 0 % 1025,9 hPa 0,0 l/m 0,2 km/h (0 Bft) 0 min 2,9 km/h (1 Bft)
23.09.2009 18:16 21,2 C 17,5 C 0,0 UV-I 0,0 C 66 % 87 % 0 % 1026,2 hPa 0,0 l/m 0,2 km/h (0 Bft) 0 min 4,3 km/h (1 Bft)
23.09.2009 18:18 21,2 C 17,5 C 0,0 UV-I 0,0 C 66 % 87 % 0 % 1026,2 hPa 0,0 l/m 0,5 km/h (0 Bft) 0 min 0,0 km/h (0 Bft)
23.09.2009 18:20 21,2 C 17,4 C 0,0 UV-I 0,0 C 66 % 87 % 0 % 1026,2 hPa 0,0 l/m 0,7 km/h (0 Bft) 0 min 0,0 km/h (0 Bft)
23.09.2009 18:22 21,2 C 17,5 C 0,0 UV-I 0,0 C 66 % 87 % 0 % 1026,2 hPa 0,0 l/m 0,5 km/h (0 Bft) 0 min 0,0 km/h (0 Bft)
23.09.2009 18:24 21,2 C 17,5 C 0,0 UV-I 0,0 C 66 % 88 % 0 % 1026,2 hPa 0,0 l/m 0,5 km/h (0 Bft) 0 min 0,0 km/h (0 Bft)
23.09.2009 18:26 21,2 C 17,4 C 0,0 UV-I 0,0 C 66 % 88 % 0 % 1026,2 hPa 0,0 l/m 0,5 km/h (0 Bft) 0 min 0,0 km/h (0 Bft)
23.09.2009 18:28 21,2 C 17,3 C 0,0 UV-I 0,0 C 66 % 88 % 0 % 1026,2 hPa 0,0 l/m 0,2 km/h (0 Bft) 0 min 0,0 km/h (0 Bft)
23.09.2009 18:30 21,2 C 17,3 C 0,0 UV-I 0,0 C 66 % 88 % 0 % 1026,2 hPa 0,0 l/m 0,0 km/h (0 Bft) 0 min 0,0 km/h (0 Bft)
23.09.2009 18:32 21,2 C 17,3 C 0,0 UV-I 0,0 C 66 % 88 % 0 % 1026,2 hPa 0,4 l/m 0,0 km/h (0 Bft) 0 min 0,0 km/h (0 Bft)
23.09.2009 18:34 21,2 C 17,3 C 0,0 UV-I 0,0 C 66 % 88 % 0 % 1026,2 hPa 0,0 l/m 0,2 km/h (0 Bft) 0 min 2,6 km/h (1 Bft)
23.09.2009 18:36 21,2 C 17,3 C 0,0 UV-I 0,0 C 66 % 88 % 0 % 1026,1 hPa 0,0 l/m 0,7 km/h (0 Bft) 0 min 3,8 km/h (1 Bft)
23.09.2009 18:38 21,2 C 17,3 C 0,0 UV-I 0,0 C 66 % 88 % 0 % 1026,1 hPa 0,0 l/m 1,0 km/h (0 Bft) 0 min 0,0 km/h (0 Bft)
23.09.2009 18:40 21,2 C 17,2 C 0,0 UV-I 0,0 C 66 % 88 % 0 % 1026,1 hPa 0,0 l/m 1,0 km/h (0 Bft) 0 min 0,0 km/h (0 Bft)
23.09.2009 18:42 21,2 C 17,2 C 0,0 UV-I 0,0 C 66 % 88 % 0 % 1026,1 hPa 0,0 l/m 1,0 km/h (0 Bft) 0 min 0,0 km/h (0 Bft)
23.09.2009 18:44 21,2 C 17,3 C 0,0 UV-I 0,0 C 66 % 88 % 0 % 1026,1 hPa 0,0 l/m 1,0 km/h (0 Bft) 0 min 0,0 km/h (0 Bft)
23.09.2009 18:46 21,2 C 17,2 C 0,0 UV-I 0,0 C 66 % 88 % 0 % 1026,1 hPa 0,0 l/m 0,5 km/h (0 Bft) 0 min 0,0 km/h (0 Bft)
23.09.2009 18:48 21,2 C 17,2 C 0,0 UV-I 0,0 C 66 % 88 % 0 % 1026,1 hPa 0,0 l/m 0,0 km/h (0 Bft) 0 min 0,0 km/h (0 Bft)
23.09.2009 18:50 21,2 C 17,2 C 0,0 UV-I 0,0 C 66 % 88 % 0 % 1026,1 hPa 0,0 l/m 0,2 km/h (0 Bft) 0 min 0,0 km/h (0 Bft)
23.09.2009 18:52 21,2 C 17,2 C 0,0 UV-I 0,0 C 66 % 88 % 0 % 1026,1 hPa 0,0 l/m 0,2 km/h (0 Bft) 0 min 0,0 km/h (0 Bft)
23.09.2009 18:54 21,2 C 17,2 C 0,0 UV-I 0,0 C 66 % 88 % 0 % 1026,1 hPa 0,0 l/m 0,2 km/h (0 Bft) 0 min 0,0 km/h (0 Bft)
23.09.2009 18:56 21,2 C 17,1 C 0,0 UV-I 0,0 C 66 % 88 % 0 % 1026,1 hPa 0,0 l/m 0,2 km/h (0 Bft) 0 min 0,0 km/h (0 Bft)
23.09.2009 18:58 21,2 C 17,2 C 0,0 UV-I 0,0 C 66 % 88 % 0 % 1026,1 hPa 0,0 l/m 0,2 km/h (0 Bft) 0 min 0,0 km/h (0 Bft)
23.09.2009 19:02 21,2 C 17,2 C 0,0 UV-I 0,0 C 66 % 88 % 0 % 1026,1 hPa 0,0 l/m 0,2 km/h (0 Bft) 0 min 0,0 km/h (0 Bft)
23.09.2009 19:04 21,2 C 17,1 C 0,0 UV-I 0,0 C 66 % 88 % 0 % 1026,1 hPa 0,0 l/m 0,2 km/h (0 Bft) 0 min 0,0 km/h (0 Bft)
23.09.2009 19:06 21,2 C 17,1 C 0,0 UV-I 0,0 C 66 % 88 % 0 % 1026,1 hPa 0,0 l/m 0,2 km/h (0 Bft) 0 min 0,0 km/h (0 Bft)
23.09.2009 19:08 21,2 C 17,1 C 0,0 UV-I 0,0 C 66 % 88 % 0 % 1026,1 hPa 0,0 l/m 0,0 km/h (0 Bft) 0 min 0,0 km/h (0 Bft)
23.09.2009 19:10 21,2 C 17,1 C 0,0 UV-I 0,0 C 66 % 88 % 0 % 1026,1 hPa 0,0 l/m 0,2 km/h (0 Bft) 0 min 0,0 km/h (0 Bft)
23.09.2009 19:12 21,2 C 17,1 C 0,0 UV-I 0,0 C 66 % 88 % 0 % 1026,1 hPa 0,0 l/m 0,2 km/h (0 Bft) 0 min 0,0 km/h (0 Bft)
23.09.2009 19:14 21,2 C 17,1 C 0,0 UV-I 0,0 C 66 % 88 % 0 % 1026,1 hPa 0,0 l/m 0,2 km/h (0 Bft) 0 min 0,0 km/h (0 Bft)
23.09.2009 19:16 21,2 C 17,1 C 0,0 UV-I 0,0 C 66 % 88 % 0 % 1025,6 hPa 0,0 l/m 0,2 km/h (0 Bft) 0 min 0,0 km/h (0 Bft)
23.09.2009 19:18 21,1 C 17,1 C 0,0 UV-I 0,0 C 66 % 89 % 0 % 1025,6 hPa 0,0 l/m 0,2 km/h (0 Bft) 0 min 0,0 km/h (0 Bft)
23.09.2009 19:20 21,1 C 17,1 C 0,0 UV-I 0,0 C 66 % 89 % 0 % 1025,6 hPa 0,0 l/m 0,0 km/h (0 Bft) 0 min 0,0 km/h (0 Bft)
23.09.2009 19:22 21,1 C 17,1 C 0,0 UV-I 0,0 C 66 % 89 % 0 % 1025,6 hPa 0,0 l/m 0,0 km/h (0 Bft) 0 min 2,9 km/h (1 Bft)
23.09.2009 19:26 21,1 C 17,1 C 0,0 UV-I 0,0 C 67 % 89 % 0 % 1025,6 hPa 0,0 l/m 0,2 km/h (0 Bft) 0 min 3,1 km/h (1 Bft)
23.09.2009 19:28 21,1 C 17,1 C 0,0 UV-I 0,0 C 67 % 89 % 0 % 1025,6 hPa 0,0 l/m 0,5 km/h (0 Bft) 0 min 0,0 km/h (0 Bft)
23.09.2009 19:30 21,1 C 17,1 C 0,0 UV-I 0,0 C 67 % 89 % 0 % 1025,6 hPa 0,0 l/m 0,5 km/h (0 Bft) 0 min 0,0 km/h (0 Bft)
23.09.2009 19:32 21,1 C 17,0 C 0,0 UV-I 0,0 C 67 % 89 % 0 % 1025,6 hPa 0,0 l/m 0,5 km/h (0 Bft) 0 min 0,0 km/h (0 Bft)
23.09.2009 19:34 21,1 C 17,1 C 0,0 UV-I 0,0 C 67 % 89 % 0 % 1025,6 hPa 0,0 l/m 0,5 km/h (0 Bft) 0 min 0,0 km/h (0 Bft)
23.09.2009 19:36 21,1 C 17,0 C 0,0 UV-I 0,0 C 67 % 89 % 0 % 1025,7 hPa 0,0 l/m 0,5 km/h (0 Bft) 0 min 0,0 km/h (0 Bft)
23.09.2009 19:38 21,1 C 17,0 C 0,0 UV-I 0,0 C 67 % 89 % 0 % 1025,7 hPa 0,0 l/m 0,0 km/h (0 Bft) 0 min 0,0 km/h (0 Bft)
23.09.2009 19:40 21,0 C 16,9 C 0,0 UV-I 0,0 C 67 % 89 % 0 % 1025,7 hPa 0,0 l/m 0,0 km/h (0 Bft) 0 min 0,0 km/h (0 Bft)
23.09.2009 19:42 21,1 C 16,9 C 0,0 UV-I 0,0 C 67 % 89 % 0 % 1025,7 hPa 0,0 l/m 0,0 km/h (0 Bft) 0 min 0,0 km/h (0 Bft)
23.09.2009 19:44 21,1 C 16,9 C 0,0 UV-I 0,0 C 67 % 89 % 0 % 1025,7 hPa 0,0 l/m 0,0 km/h (0 Bft) 0 min 0,0 km/h (0 Bft)
23.09.2009 19:46 21,1 C 16,9 C 0,0 UV-I 0,0 C 67 % 89 % 0 % 1025,7 hPa 0,0 l/m 0,0 km/h (0 Bft) 0 min 0,0 km/h (0 Bft)
23.09.2009 19:48 21,1 C 16,9 C 0,0 UV-I 0,0 C 67 % 89 % 0 % 1025,7 hPa 0,0 l/m 0,0 km/h (0 Bft) 0 min 0,0 km/h (0 Bft)
23.09.2009 19:50 21,0 C 16,9 C 0,0 UV-I 0,0 C 67 % 89 % 0 % 1025,7 hPa 0,0 l/m 0,0 km/h (0 Bft) 0 min 2,4 km/h (1 Bft)
23.09.2009 19:52 21,1 C 16,9 C 0,0 UV-I 0,0 C 67 % 89 % 0 % 1025,7 hPa 0,0 l/m 0,2 km/h (0 Bft) 0 min 0,0 km/h (0 Bft)
23.09.2009 19:56 21,0 C 16,9 C 0,0 UV-I 0,0 C 67 % 89 % 0 % 1025,8 hPa 0,0 l/m 0,2 km/h (0 Bft) 0 min 0,0 km/h (0 Bft)
23.09.2009 19:58 21,1 C 16,8 C 0,0 UV-I 0,0 C 67 % 89 % 0 % 1025,8 hPa 0,0 l/m 0,2 km/h (0 Bft) 0 min 0,0 km/h (0 Bft)
23.09.2009 20:00 21,1 C 16,8 C 0,0 UV-I 0,0 C 67 % 89 % 0 % 1025,8 hPa 0,0 l/m 0,2 km/h (0 Bft) 0 min 0,0 km/h (0 Bft)
23.09.2009 20:02 21,0 C 16,8 C 0,0 UV-I 0,0 C 67 % 89 % 0 % 1025,8 hPa 0,0 l/m 0,0 km/h (0 Bft) 0 min 0,0 km/h (0 Bft)
23.09.2009 20:04 21,1 C 16,8 C 0,0 UV-I 0,0 C 67 % 89 % 0 % 1025,8 hPa 0,0 l/m 0,0 km/h (0 Bft) 0 min 0,0 km/h (0 Bft)
23.09.2009 20:06 21,0 C 16,9 C 0,0 UV-I 0,0 C 67 % 89 % 0 % 1025,8 hPa 0,0 l/m 0,0 km/h (0 Bft) 0 min 0,0 km/h (0 Bft)
23.09.2009 20:08 21,0 C 16,9 C 0,0 UV-I 0,0 C 67 % 89 % 0 % 1025,8 hPa 0,0 l/m 0,0 km/h (0 Bft) 0 min 0,0 km/h (0 Bft)
23.09.2009 20:10 21,1 C 16,9 C 0,0 UV-I 0,0 C 67 % 89 % 0 % 1025,8 hPa 0,0 l/m 0,0 km/h (0 Bft) 0 min 0,0 km/h (0 Bft)
23.09.2009 20:12 21,0 C 16,8 C 0,0 UV-I 0,0 C 67 % 89 % 0 % 1025,8 hPa 0,0 l/m 0,0 km/h (0 Bft) 0 min 0,0 km/h (0 Bft)
23.09.2009 20:14 21,0 C 16,9 C 0,0 UV-I 0,0 C 67 % 89 % 0 % 1025,8 hPa 0,0 l/m 0,0 km/h (0 Bft) 0 min 0,0 km/h (0 Bft)
23.09.2009 20:16 21,0 C 16,8 C 0,0 UV-I 0,0 C 67 % 89 % 0 % 1026,1 hPa 0,0 l/m 0,0 km/h (0 Bft) 0 min 0,0 km/h (0 Bft)
23.09.2009 20:18 21,0 C 16,8 C 0,0 UV-I 0,0 C 68 % 89 % 0 % 1026,1 hPa 0,0 l/m 0,0 km/h (0 Bft) 0 min 0,0 km/h (0 Bft)
23.09.2009 20:20 21,0 C 16,8 C 0,0 UV-I 0,0 C 67 % 89 % 0 % 1026,1 hPa 0,0 l/m 0,0 km/h (0 Bft) 0 min 0,0 km/h (0 Bft)
23.09.2009 20:22 21,0 C 16,8 C 0,0 UV-I 0,0 C 67 % 90 % 0 % 1026,1 hPa 0,0 l/m 0,0 km/h (0 Bft) 0 min 0,0 km/h (0 Bft)
23.09.2009 20:26 21,0 C 16,7 C 0,0 UV-I 0,0 C 68 % 90 % 0 % 1026,1 hPa 0,0 l/m 0,0 km/h (0 Bft) 0 min 0,0 km/h (0 Bft)
23.09.2009 20:28 21,0 C 16,7 C 0,0 UV-I 0,0 C 68 % 90 % 0 % 1026,1 hPa 0,0 l/m 0,0 km/h (0 Bft) 0 min 0,0 km/h (0 Bft)
23.09.2009 20:30 21,0 C 16,7 C 0,0 UV-I 0,0 C 68 % 90 % 0 % 1026,1 hPa 0,0 l/m 0,0 km/h (0 Bft) 0 min 0,0 km/h (0 Bft)
23.09.2009 20:32 21,0 C 16,7 C 0,0 UV-I 0,0 C 68 % 90 % 0 % 1026,1 hPa 0,0 l/m 0,0 km/h (0 Bft) 0 min 0,0 km/h (0 Bft)
23.09.2009 20:34 21,0 C 16,7 C 0,0 UV-I 0,0 C 68 % 90 % 0 % 1026,1 hPa 0,0 l/m 0,0 km/h (0 Bft) 0 min 0,0 km/h (0 Bft)
23.09.2009 20:36 21,0 C 16,7 C 0,0 UV-I 0,0 C 68 % 90 % 0 % 1026,0 hPa 0,0 l/m 0,0 km/h (0 Bft) 0 min 0,0 km/h (0 Bft)
23.09.2009 20:38 21,0 C 16,7 C 0,0 UV-I 0,0 C 68 % 90 % 0 % 1026,0 hPa 0,0 l/m 0,0 km/h (0 Bft) 0 min 0,0 km/h (0 Bft)
23.09.2009 20:40 21,0 C 16,7 C 0,0 UV-I 0,0 C 68 % 90 % 0 % 1026,0 hPa 0,0 l/m 0,0 km/h (0 Bft) 0 min 0,0 km/h (0 Bft)
23.09.2009 20:42 21,0 C 16,6 C 0,0 UV-I 0,0 C 68 % 90 % 0 % 1026,0 hPa 0,0 l/m 0,0 km/h (0 Bft) 0 min 0,0 km/h (0 Bft)
23.09.2009 20:44 21,0 C 16,6 C 0,0 UV-I 0,0 C 68 % 90 % 0 % 1026,0 hPa 0,0 l/m 0,0 km/h (0 Bft) 0 min 0,0 km/h (0 Bft)
23.09.2009 20:46 21,0 C 16,6 C 0,0 UV-I 0,0 C 68 % 90 % 0 % 1026,0 hPa 0,0 l/m 0,0 km/h (0 Bft) 0 min 0,0 km/h (0 Bft)
23.09.2009 20:48 21,0 C 16,6 C 0,0 UV-I 0,0 C 68 % 90 % 0 % 1026,0 hPa 0,0 l/m 0,0 km/h (0 Bft) 0 min 0,0 km/h (0 Bft)
23.09.2009 20:52 21,0 C 16,7 C 0,0 UV-I 0,0 C 68 % 90 % 0 % 1026,0 hPa 0,0 l/m 0,0 km/h (0 Bft) 0 min 0,0 km/h (0 Bft)
23.09.2009 20:54 21,0 C 16,7 C 0,0 UV-I 0,0 C 68 % 90 % 0 % 1026,0 hPa 0,0 l/m 0,0 km/h (0 Bft) 0 min 0,0 km/h (0 Bft)
23.09.2009 20:56 21,0 C 16,7 C 0,0 UV-I 0,0 C 68 % 90 % 0 % 1026,2 hPa 0,1 l/m 0,0 km/h (0 Bft) 0 min 0,0 km/h (0 Bft)
23.09.2009 20:58 21,0 C 16,7 C 0,0 UV-I 0,0 C 68 % 90 % 0 % 1026,2 hPa 0,0 l/m 0,0 km/h (0 Bft) 0 min 0,0 km/h (0 Bft)
23.09.2009 21:00 21,0 C 16,7 C 0,0 UV-I 0,0 C 68 % 90 % 0 % 1026,2 hPa 0,0 l/m 0,0 km/h (0 Bft) 0 min 0,0 km/h (0 Bft)
23.09.2009 21:02 21,0 C 16,7 C 0,0 UV-I 0,0 C 68 % 90 % 0 % 1026,2 hPa 0,0 l/m 0,0 km/h (0 Bft) 0 min 0,0 km/h (0 Bft)
23.09.2009 21:04 21,0 C 16,6 C 0,0 UV-I 0,0 C 68 % 91 % 0 % 1026,2 hPa 0,0 l/m 0,0 km/h (0 Bft) 0 min 0,0 km/h (0 Bft)
23.09.2009 21:08 21,0 C 16,6 C 0,0 UV-I 0,0 C 68 % 91 % 0 % 1026,2 hPa 0,0 l/m 0,0 km/h (0 Bft) 0 min 0,0 km/h (0 Bft)
23.09.2009 21:10 21,0 C 16,5 C 0,0 UV-I 0,0 C 68 % 91 % 0 % 1026,2 hPa 0,1 l/m 0,0 km/h (0 Bft) 0 min 0,0 km/h (0 Bft)
23.09.2009 21:12 21,0 C 16,6 C 0,0 UV-I 0,0 C 68 % 91 % 0 % 1026,2 hPa 0,0 l/m 0,0 km/h (0 Bft) 0 min 0,0 km/h (0 Bft)
23.09.2009 21:14 21,0 C 16,5 C 0,0 UV-I 0,0 C 68 % 91 % 0 % 1026,2 hPa 0,0 l/m 0,0 km/h (0 Bft) 0 min 0,0 km/h (0 Bft)
23.09.2009 21:16 21,0 C 16,5 C 0,0 UV-I 0,0 C 68 % 91 % 0 % 1026,2 hPa 0,0 l/m 0,0 km/h (0 Bft) 0 min 0,0 km/h (0 Bft)
23.09.2009 21:18 21,0 C 16,5 C 0,0 UV-I 0,0 C 68 % 91 % 0 % 1026,2 hPa 0,0 l/m 0,0 km/h (0 Bft) 0 min 0,0 km/h (0 Bft)
23.09.2009 21:20 21,0 C 16,5 C 0,0 UV-I 0,0 C 68 % 91 % 0 % 1026,2 hPa 0,0 l/m 0,0 km/h (0 Bft) 0 min 0,0 km/h (0 Bft)
23.09.2009 21:22 21,0 C 16,5 C 0,0 UV-I 0,0 C 68 % 91 % 0 % 1026,2 hPa 0,0 l/m 0,0 km/h (0 Bft) 0 min 0,0 km/h (0 Bft)
23.09.2009 21:24 20,9 C 16,5 C 0,0 UV-I 0,0 C 68 % 91 % 0 % 1026,2 hPa 0,0 l/m 0,0 km/h (0 Bft) 0 min 0,0 km/h (0 Bft)
23.09.2009 21:26 21,0 C 16,5 C 0,0 UV-I 0,0 C 68 % 91 % 0 % 1026,2 hPa 0,0 l/m 0,0 km/h (0 Bft) 0 min 0,0 km/h (0 Bft)
23.09.2009 21:28 20,9 C 16,5 C 0,0 UV-I 0,0 C 68 % 91 % 0 % 1026,2 hPa 0,0 l/m 0,5 km/h (0 Bft) 0 min 0,0 km/h (0 Bft)
23.09.2009 21:32 20,9 C 16,4 C 0,0 UV-I 0,0 C 68 % 91 % 0 % 1026,2 hPa 0,0 l/m 0,5 km/h (0 Bft) 0 min 0,0 km/h (0 Bft)
23.09.2009 21:34 20,9 C 16,4 C 0,0 UV-I 0,0 C 68 % 91 % 0 % 1026,2 hPa 0,0 l/m 0,5 km/h (0 Bft) 0 min 0,0 km/h (0 Bft)
23.09.2009 21:36 20,9 C 16,4 C 0,0 UV-I 0,0 C 68 % 91 % 0 % 1026,2 hPa 0,0 l/m 0,5 km/h (0 Bft) 0 min 0,0 km/h (0 Bft)
23.09.2009 21:38 20,9 C 16,4 C 0,0 UV-I 0,0 C 68 % 91 % 0 % 1026,2 hPa 0,0 l/m 0,0 km/h (0 Bft) 0 min 0,0 km/h (0 Bft)
23.09.2009 21:40 20,9 C 16,4 C 0,0 UV-I 0,0 C 68 % 91 % 0 % 1026,2 hPa 0,0 l/m 0,0 km/h (0 Bft) 0 min 0,0 km/h (0 Bft)
23.09.2009 21:42 20,9 C 16,5 C 0,0 UV-I 0,0 C 68 % 91 % 0 % 1026,2 hPa 0,0 l/m 0,2 km/h (0 Bft) 0 min 4,1 km/h (1 Bft)
23.09.2009 21:48 20,9 C 16,5 C 0,0 UV-I 0,0 C 68 % 91 % 0 % 1026,2 hPa 0,0 l/m 0,2 km/h (0 Bft) 0 min 0,0 km/h (0 Bft)
23.09.2009 21:50 20,9 C 16,4 C 0,0 UV-I 0,0 C 68 % 91 % 0 % 1026,2 hPa 0,0 l/m 0,2 km/h (0 Bft) 0 min 0,0 km/h (0 Bft)
23.09.2009 21:52 20,9 C 16,4 C 0,0 UV-I 0,0 C 68 % 91 % 0 % 1026,2 hPa 0,0 l/m 0,2 km/h (0 Bft) 0 min 0,0 km/h (0 Bft)
23.09.2009 21:54 20,9 C 16,5 C 0,0 UV-I 0,0 C 68 % 91 % 0 % 1026,2 hPa 0,0 l/m 0,0 km/h (0 Bft) 0 min 0,0 km/h (0 Bft)
23.09.2009 21:56 20,9 C 16,4 C 0,0 UV-I 0,0 C 68 % 91 % 0 % 1026,2 hPa 0,1 l/m 0,0 km/h (0 Bft) 0 min 2,4 km/h (1 Bft)
23.09.2009 21:58 20,9 C 16,5 C 0,0 UV-I 0,0 C 68 % 91 % 0 % 1026,2 hPa 0,0 l/m 0,0 km/h (0 Bft) 0 min 0,0 km/h (0 Bft)
23.09.2009 22:00 20,9 C 16,4 C 0,0 UV-I 0,0 C 68 % 91 % 0 % 1026,2 hPa 0,0 l/m 0,2 km/h (0 Bft) 0 min 3,4 km/h (1 Bft)
23.09.2009 22:04 20,9 C 16,3 C 0,0 UV-I 0,0 C 68 % 91 % 0 % 1026,2 hPa 0,0 l/m 0,2 km/h (0 Bft) 0 min 2,6 km/h (1 Bft)
23.09.2009 22:06 20,9 C 16,3 C 0,0 UV-I 0,0 C 68 % 91 % 0 % 1026,2 hPa 0,0 l/m 0,2 km/h (0 Bft) 0 min 0,0 km/h (0 Bft)
23.09.2009 22:08 20,9 C 16,3 C 0,0 UV-I 0,0 C 68 % 91 % 0 % 1026,2 hPa 0,0 l/m 0,2 km/h (0 Bft) 0 min 0,0 km/h (0 Bft)
23.09.2009 22:10 20,9 C 16,3 C 0,0 UV-I 0,0 C 68 % 91 % 0 % 1026,2 hPa 0,0 l/m 0,2 km/h (0 Bft) 0 min 2,4 km/h (1 Bft)
23.09.2009 22:12 20,9 C 16,3 C 0,0 UV-I 0,0 C 69 % 91 % 0 % 1026,2 hPa 0,0 l/m 0,2 km/h (0 Bft) 0 min 0,0 km/h (0 Bft)
23.09.2009 22:16 20,9 C 16,3 C 0,0 UV-I 0,0 C 68 % 91 % 0 % 1026,1 hPa 0,0 l/m 0,0 km/h (0 Bft) 0 min 0,0 km/h (0 Bft)
23.09.2009 22:18 20,9 C 16,3 C 0,0 UV-I 0,0 C 69 % 91 % 0 % 1026,1 hPa 0,0 l/m 0,0 km/h (0 Bft) 0 min 0,0 km/h (0 Bft)
23.09.2009 22:20 20,9 C 16,3 C 0,0 UV-I 0,0 C 69 % 91 % 0 % 1026,1 hPa 0,0 l/m 0,2 km/h (0 Bft) 0 min 0,0 km/h (0 Bft)
23.09.2009 22:22 20,9 C 16,3 C 0,0 UV-I 0,0 C 69 % 91 % 0 % 1026,1 hPa 0,0 l/m 0,2 km/h (0 Bft) 0 min 0,0 km/h (0 Bft)
23.09.2009 22:24 20,9 C 16,3 C 0,0 UV-I 0,0 C 69 % 91 % 0 % 1026,1 hPa 0,0 l/m 0,2 km/h (0 Bft) 0 min 0,0 km/h (0 Bft)
23.09.2009 22:26 20,9 C 16,3 C 0,0 UV-I 0,0 C 69 % 91 % 0 % 1026,1 hPa 0,0 l/m 0,2 km/h (0 Bft) 0 min 0,0 km/h (0 Bft)
23.09.2009 22:28 20,9 C 16,3 C 0,0 UV-I 0,0 C 69 % 91 % 0 % 1026,1 hPa 0,0 l/m 0,2 km/h (0 Bft) 0 min 0,0 km/h (0 Bft)
23.09.2009 22:30 20,9 C 16,2 C 0,0 UV-I 0,0 C 69 % 91 % 0 % 1026,1 hPa 0,0 l/m 0,0 km/h (0 Bft) 0 min 0,0 km/h (0 Bft)
23.09.2009 22:32 20,8 C 16,2 C 0,0 UV-I 0,0 C 69 % 91 % 0 % 1026,1 hPa 0,0 l/m 0,2 km/h (0 Bft) 0 min 0,0 km/h (0 Bft)
23.09.2009 22:34 20,8 C 16,3 C 0,0 UV-I 0,0 C 69 % 91 % 0 % 1026,1 hPa 0,0 l/m 0,0 km/h (0 Bft) 0 min 0,0 km/h (0 Bft)
23.09.2009 22:36 20,9 C 16,3 C 0,0 UV-I 0,0 C 69 % 91 % 0 % 1026,1 hPa 0,0 l/m 0,0 km/h (0 Bft) 0 min 0,0 km/h (0 Bft)
23.09.2009 22:38 20,8 C 16,3 C 0,0 UV-I 0,0 C 69 % 91 % 0 % 1026,1 hPa 0,0 l/m 0,0 km/h (0 Bft) 0 min 0,0 km/h (0 Bft)
23.09.2009 22:40 20,8 C 16,3 C 0,0 UV-I 0,0 C 69 % 91 % 0 % 1026,1 hPa 0,0 l/m 0,0 km/h (0 Bft) 0 min 0,0 km/h (0 Bft)
23.09.2009 22:44 20,8 C 16,3 C 0,0 UV-I 0,0 C 69 % 91 % 0 % 1026,1 hPa 0,0 l/m 0,0 km/h (0 Bft) 0 min 0,0 km/h (0 Bft)
23.09.2009 22:46 20,8 C 16,3 C 0,0 UV-I 0,0 C 69 % 92 % 0 % 1026,1 hPa 0,0 l/m 0,0 km/h (0 Bft) 0 min 0,0 km/h (0 Bft)
23.09.2009 22:48 20,8 C 16,3 C 0,0 UV-I 0,0 C 69 % 92 % 0 % 1026,1 hPa 0,0 l/m 0,0 km/h (0 Bft) 0 min 0,0 km/h (0 Bft)
23.09.2009 22:52 20,8 C 16,3 C 0,0 UV-I 0,0 C 69 % 92 % 0 % 1026,1 hPa 0,0 l/m 0,0 km/h (0 Bft) 0 min 0,0 km/h (0 Bft)
23.09.2009 22:54 20,8 C 16,2 C 0,0 UV-I 0,0 C 69 % 92 % 0 % 1026,1 hPa 0,0 l/m 0,2 km/h (0 Bft) 0 min 0,0 km/h (0 Bft)
23.09.2009 22:56 20,8 C 16,2 C 0,0 UV-I 0,0 C 69 % 92 % 0 % 1025,7 hPa 0,0 l/m 0,2 km/h (0 Bft) 0 min 0,0 km/h (0 Bft)
23.09.2009 23:00 20,8 C 16,2 C 0,0 UV-I 0,0 C 69 % 92 % 0 % 1025,7 hPa 0,0 l/m 0,2 km/h (0 Bft) 0 min 0,0 km/h (0 Bft)
23.09.2009 23:02 20,8 C 16,2 C 0,0 UV-I 0,0 C 69 % 92 % 0 % 1025,7 hPa 0,0 l/m 0,2 km/h (0 Bft) 0 min 0,0 km/h (0 Bft)
23.09.2009 23:04 20,8 C 16,1 C 0,0 UV-I 0,0 C 69 % 92 % 0 % 1025,7 hPa 0,0 l/m 0,0 km/h (0 Bft) 0 min 0,0 km/h (0 Bft)
23.09.2009 23:06 20,8 C 16,1 C 0,0 UV-I 0,0 C 69 % 92 % 0 % 1025,7 hPa 0,0 l/m 0,0 km/h (0 Bft) 0 min 0,0 km/h (0 Bft)
23.09.2009 23:08 20,8 C 16,1 C 0,0 UV-I 0,0 C 69 % 92 % 0 % 1025,7 hPa 0,0 l/m 0,0 km/h (0 Bft) 0 min 0,0 km/h (0 Bft)
23.09.2009 23:10 20,8 C 16,1 C 0,0 UV-I 0,0 C 69 % 92 % 0 % 1025,7 hPa 0,0 l/m 0,0 km/h (0 Bft) 0 min 0,0 km/h (0 Bft)
23.09.2009 23:14 20,8 C 16,1 C 0,0 UV-I 0,0 C 69 % 92 % 0 % 1025,7 hPa 0,0 l/m 0,0 km/h (0 Bft) 0 min 2,4 km/h (1 Bft)
23.09.2009 23:16 20,8 C 16,1 C 0,0 UV-I 0,0 C 69 % 92 % 0 % 1025,6 hPa 0,0 l/m 0,0 km/h (0 Bft) 0 min 0,0 km/h (0 Bft)
23.09.2009 23:18 20,8 C 16,1 C 0,0 UV-I 0,0 C 69 % 92 % 0 % 1025,6 hPa 0,0 l/m 0,0 km/h (0 Bft) 0 min 0,0 km/h (0 Bft)
23.09.2009 23:20 20,8 C 16,1 C 0,0 UV-I 0,0 C 69 % 92 % 0 % 1025,6 hPa 0,0 l/m 0,0 km/h (0 Bft) 0 min 0,0 km/h (0 Bft)
23.09.2009 23:22 20,8 C 16,1 C 0,0 UV-I 0,0 C 69 % 92 % 0 % 1025,6 hPa 0,0 l/m 0,0 km/h (0 Bft) 0 min 0,0 km/h (0 Bft)
23.09.2009 23:26 20,8 C 16,1 C 0,0 UV-I 0,0 C 69 % 92 % 0 % 1025,6 hPa 0,0 l/m 0,0 km/h (0 Bft) 0 min 0,0 km/h (0 Bft)
23.09.2009 23:30 20,8 C 16,1 C 0,0 UV-I 0,0 C 68 % 92 % 0 % 1025,6 hPa 0,0 l/m 0,0 km/h (0 Bft) 0 min 0,0 km/h (0 Bft)
23.09.2009 23:32 20,8 C 16,1 C 0,0 UV-I 0,0 C 68 % 92 % 0 % 1025,6 hPa 0,0 l/m 0,0 km/h (0 Bft) 0 min 0,0 km/h (0 Bft)
23.09.2009 23:34 20,8 C 16,1 C 0,0 UV-I 0,0 C 69 % 92 % 0 % 1025,6 hPa 0,0 l/m 0,0 km/h (0 Bft) 0 min 0,0 km/h (0 Bft)
23.09.2009 23:36 20,8 C 16,0 C 0,0 UV-I 0,0 C 68 % 92 % 0 % 1025,9 hPa 0,0 l/m 0,0 km/h (0 Bft) 0 min 0,0 km/h (0 Bft)
23.09.2009 23:38 20,8 C 16,1 C 0,0 UV-I 0,0 C 68 % 92 % 0 % 1025,9 hPa 0,0 l/m 0,0 km/h (0 Bft) 0 min 0,0 km/h (0 Bft)
23.09.2009 23:40 20,8 C 16,0 C 0,0 UV-I 0,0 C 69 % 92 % 0 % 1025,9 hPa 0,0 l/m 0,0 km/h (0 Bft) 0 min 0,0 km/h (0 Bft)
23.09.2009 23:42 20,8 C 16,0 C 0,0 UV-I 0,0 C 69 % 92 % 0 % 1025,9 hPa 0,0 l/m 0,0 km/h (0 Bft) 0 min 0,0 km/h (0 Bft)
23.09.2009 23:44 20,8 C 16,0 C 0,0 UV-I 0,0 C 68 % 92 % 0 % 1025,9 hPa 0,0 l/m 0,0 km/h (0 Bft) 0 min 0,0 km/h (0 Bft)
23.09.2009 23:46 20,8 C 16,0 C 0,0 UV-I 0,0 C 69 % 92 % 0 % 1025,9 hPa 0,0 l/m 0,0 km/h (0 Bft) 0 min 0,0 km/h (0 Bft)
23.09.2009 23:48 20,8 C 16,0 C 0,0 UV-I 0,0 C 69 % 92 % 0 % 1025,9 hPa 0,0 l/m 0,0 km/h (0 Bft) 0 min 0,0 km/h (0 Bft)
23.09.2009 23:50 20,8 C 16,0 C 0,0 UV-I 0,0 C 68 % 92 % 0 % 1025,9 hPa 0,0 l/m 0,0 km/h (0 Bft) 0 min 0,0 km/h (0 Bft)
23.09.2009 23:52 20,8 C 16,0 C 0,0 UV-I 0,0 C 69 % 92 % 0 % 1025,9 hPa 0,0 l/m 0,0 km/h (0 Bft) 0 min 0,0 km/h (0 Bft)
23.09.2009 23:56 20,8 C 16,0 C 0,0 UV-I 0,0 C 69 % 92 % 0 % 1025,4 hPa 0,0 l/m 0,0 km/h (0 Bft) 0 min 0,0 km/h (0 Bft)
_ Min-Zeit 08:50 02:26 00:00 00:00 00:00 15:26 00:00 06:16 - 00:00 - 00:00
Minimum _ 19,9 C 11,5 C 0,0 UV-I 0,0 C 52 % 74 % 0 % 1025,3 hPa - 0,0 km/h (0 Bft) - 0,0 km/h (0 Bft)
_ Max-Zeit 15:06 15:16 13:28 13:34 22:12 22:46 13:26 12:56 18:32 12:50 13:26 13:30
Maximum _ 21,7 C 20,0 C 10,1 UV-I 5,4 C 69 % 92 % 100 % 1027,5 hPa 0,4 l/m 4,8 km/h
O-NO (1 Bft)
2 min 18,8 km/h
W-SW (3 Bft)
Durchschnitt _ 20,7 C 15,7 C 0,5 UV-I 0,3 C 62 % 86 % 8 % 1026,2 hPa #0,7 l/m 1,4 km/h (1 Bft) #22 min. 2,5 km/h (1 Bft)
© 2012 W. Hausmann